                ,  0.290,  0.386,  0.483,  0.580,  0.676,  0.773,  0.869,  0.966,  1.063,  1.159,  1.256,  1.352,  1.449,  1.545,  1.642,  1.739,  1.835,  1.932,  2.028,  2.125,  2.222,  2.318,  2.415,  2.511,  2.608,  2.705,  2.801,  2.898,  2.994,  3.091,  3.188,  3.284,  3.381,  3.477,  3.574,  3.671,  3.767,  3.864,  3.960,  4.057,  4.153,  4.250,  4.347,  4.443,  4.540,  4.636,  4.733,  4.830,  4.926,  5.023,  5.119,  5.216,  5.313,  5.409,  5.506,  5.602,  5.699,  5.796
2000/11/02 00:00,  999.0,  999.0,  999.0,  999.0,   -1.6,  999.0,  999.0,  999.0,    3.1,    2.3,    2.7,    2.9,    2.1,  999.0,    9.2,  999.0,    9.4,  999.0,  999.0,  999.0,  999.0,  999.0,  999.0,  999.0,  999.0,  999.0,  999.0,  999.0,  999.0,  999.0,  999.0,  999.0,  999.0,  999.0,  999.0,  999.0,  999.0,  999.0,  999.0,  999.0,  999.0,  999.0,  999.0,  999.0,  999.0,  999.0,  999.0,  999.0,  999.0,  999.0,  999.0,  999.0,  999.0,  999.0,  999.0,  999.0,  999.0,  999.0
2000/11/02 00:10,  999.0,  999.0,  999.0,   -0.4,    3.6,    7.7,    4.4,    3.2,    3.7,    0.2,    6.3,   10.4,   -1.7,  999.0,   -1.0,  999.0,  999.0,  999.0,    4.5,  999.0,  999.0,  999.0,  999.0,  999.0,  999.0,  999.0,  999.0,  999.0,  999.0,  999.0,  999.0,  999.0,  999.0,  999.0,  999.0,  999.0,  999.0,  999.0,  999.0,  999.0,  999.0,  999.0,  999.0,  999.0,  999.0,  999.0,  999.0,  999.0,  999.0,  999.0,  999.0,  999.0,  999.0,  999.0,  999.0,  999.0,  999.0,  999.0
2000/11/02 00:20,  999.0,  999.0,  999.0,    5.8,   -0.4,   -0.2,    0.4,  999.0,    2.5,   -0.2,   -0.2,   -1.0,   -6.5,    1.6,    2.8,  999.0,  999.0,  999.0,  999.0,  999.0,  999.0,  999.0,  999.0,   -0.4,  999.0,  999.0,  999.0,  999.0,  999.0,  999.0,  999.0,  999.0,  999.0,  999.0,  999.0,  999.0,  999.0,  999.0,  999.0,  999.0,  999.0,  999.0,  999.0,  999.0,  999.0,  999.0,  999.0,  999.0,  999.0,  999.0,  999.0,  999.0,  999.0,  999.0,  999.0,  999.0,  999.0,  999.0
2000/11/02 00:30,  999.0,  999.0,  999.0,   -0.8,    0.1,    1.9,    0.4,    0.8,    0.8,    0.8,    0.7,  999.0,    4.1,  999.0,  999.0,  999.0,  999.0,  999.0,  999.0,   -0.1,  999.0,  999.0,  999.0,  999.0,  999.0,  999.0,  999.0,  999.0,  999.0,  999.0,  999.0,  999.0,  999.0,  -38.6,  999.0,  999.0,  999.0,  999.0,  999.0,  999.0,  -42.7,  999.0,  999.0,  999.0,  999.0,  999.0,  999.0,  999.0,  999.0,  999.0,  999.0,  -41.4,  999.0,  999.0,  999.0,  999.0,  999.0,  999.0
2000/11/02 00:40,  999.0,  999.0,  999.0,    3.0,    1.1,    2.8,    1.9,    2.2,    0.6,    3.6,   -0.4,    2.9,  999.0,  999.0,  999.0,  999.0,    0.7,  999.0,  999.0,  999.0,  999.0,  999.0,  999.0,  999.0,  999.0,  999.0,  999.0,  999.0,  999.0,  -41.4,  999.0,  -42.6,  -41.1,  -42.1,  999.0,  -42.1,  999.0,  999.0,  999.0,  999.0,  -41.5,  -41.5,  -42.4,  999.0,  -41.3,  999.0,  -41.8,  999.0,  -41.5,  -41.5,  999.0,  -42.0,  999.0,  -41.5,  999.0,  -41.7,  999.0,  -41.6
2000/11/02 00:50,  999.0,  999.0,  999.0,    0.6,    2.6,    2.0,   -0.6,   -0.0,   -0.5,    2.2,  999.0,   -2.9,   -0.4,  999.0,  999.0,   -6.4,   -6.7,  999.0,  999.0,  999.0,  999.0,  999.0,  999.0,  999.0,  999.0,  999.0,  999.0,  999.0,  -36.9,  -37.0,  -36.8,  -39.7,  -40.6,  -40.2,  999.0,  -42.0,  999.0,  999.0,  -41.9,  999.0,  -42.6,  -42.3,  -42.3,  -41.6,  -41.3,  999.0,  -41.8,  -41.0,  999.0,  -41.8,  -41.5,  -41.7,  -41.5,  -41.7,  -41.4,  -42.1,  -41.2,  -41.8
2000/11/02 01:00,  999.0,  999.0,    3.7,    2.4,    1.6,    0.2,    1.2,    1.6,    2.4,  999.0,  999.0,   -2.9,   -2.8,    4.6,  999.0,  999.0,  999.0,  999.0,  999.0,  999.0,  999.0,  999.0,  999.0,  999.0,  999.0,  999.0,  999.0,  999.0,  -37.7,  999.0,  999.0,  999.0,  999.0,  999.0,  999.0,  -42.2,  -42.3,  999.0,  -41.2,  999.0,  999.0,  -40.7,  -41.6,  999.0,  999.0,  999.0,  999.0,  -41.8,  -42.1,  -41.5,  999.0,  -41.8,  999.0,  -41.3,  -42.1,  -41.4,  -41.9,  -41.8
2000/11/02 01:10,  999.0,  999.0,  999.0,   -0.1,   -1.6,    0.5,    1.1,    0.2,    0.3,    0.3,    1.2,  999.0,   -0.8,   -1.1,   -4.3,  999.0,  999.0,  999.0,  999.0,  999.0,  999.0,  999.0,  999.0,  999.0,  999.0,  999.0,  999.0,  999.0,  -37.3,  999.0,  -39.7,  999.0,  999.0,  999.0,  999.0,  999.0,  -41.8,  -41.9,  -41.7,  -42.5,  -42.3,  -41.1,  -41.5,  -41.4,  999.0,  999.0,  -40.7,  -41.5,  -41.5,  -42.0,  999.0,  -41.1,  -40.7,  999.0,  -41.1,  -41.4,  -41.8,  -41.6
2000/11/02 01:20,  999.0,  999.0,  999.0,  999.0,   -1.2,  999.0,  999.0,   -0.5,  999.0,   -0.9,   -4.5,  999.0,    0.4,  999.0,   -2.2,  999.0,  999.0,  999.0,  999.0,  999.0,  999.0,  999.0,  999.0,  999.0,  999.0,  999.0,  999.0,  999.0,  999.0,  999.0,  999.0,  999.0,  999.0,  999.0,  -41.8,  999.0,  999.0,  999.0,  -41.7,  -41.8,  -41.5,  999.0,  999.0,  999.0,  -42.0,  -41.7,  999.0,  999.0,  -42.3,  999.0,  -42.0,  999.0,  999.0,  999.0,  -41.7,  999.0,  -41.7,  -41.8
2000/11/02 01:30,  999.0,  999.0,  999.0,   -3.6,    0.7,   -1.1,   -0.2,    1.9,  999.0,    1.5,  999.0,   -6.4,   -7.5,   -8.6,  -10.1,  999.0,  -10.4,  -14.1,  -15.0,  -17.0,  -17.0,  999.0,  999.0,  999.0,  999.0,  999.0,  999.0,  999.0,  999.0,  -41.3,  999.0,  -41.5,  999.0,  -41.6,  -42.2,  -41.6,  -41.7,  -42.1,  -41.7,  -41.7,  -42.3,  -41.4,  999.0,  -42.0,  -41.9,  -42.0,  -41.8,  -41.6,  -42.0,  -42.2,  -42.0,  -42.4,  -41.6,  -42.2,  -41.5,  -42.1,  999.0,  -41.6
2000/11/02 01:40,  999.0,  999.0,  999.0,  999.0,   -5.4,   -8.0,   -2.1,   -1.3,   -2.3,   -3.5,   -3.3,   -4.6,   -8.3,   -6.6,   -7.7,   -8.3,   -9.0,  -13.2,  -14.5,  -12.5,  -17.8,  -19.0,  -20.6,  -21.6,  -22.0,  999.0,  999.0,  999.0,  999.0,  -37.0,  999.0,  999.0,  -42.5,  -42.3,  -42.0,  -42.2,  -42.4,  -42.0,  -41.9,  -41.9,  -41.2,  -41.7,  -42.3,  -41.4,  -42.1,  -42.0,  999.0,  -42.1,  -41.7,  -42.1,  -41.6,  999.0,  -40.9,  -42.5,  -42.0,  -41.7,  -41.6,  -42.5
2000/11/02 01:50,  999.0,  999.0,  999.0,  999.0,    0.8,    3.1,    2.6,   -0.3,   -0.7,    0.5,    0.9,   -4.0,  999.0,   -3.4,   -4.0,   -3.5,   -3.2,  999.0,  999.0,  999.0,  999.0,  999.0,  999.0,  999.0,  -12.7,  999.0,  999.0,  999.0,  -36.4,  999.0,  999.0,  999.0,  -41.7,  -40.9,  -41.5,  -42.1,  -41.7,  -41.1,  999.0,  -41.8,  -42.0,  -41.8,  -42.2,  -41.7,  -41.6,  -42.2,  -41.8,  -41.7,  -41.9,  -42.1,  -42.0,  -42.0,  -41.8,  -41.5,  -41.4,  -41.9,  -41.6,  -41.8
2000/11/02 02:00,  999.0,  999.0,  999.0,    0.7,    2.9,    4.2,    6.1,    2.0,    2.5,    2.4,    2.6,  999.0,  999.0,   -2.7,  999.0,  999.0,  999.0,  999.0,  999.0,  999.0,  999.0,  999.0,  999.0,  999.0,  999.0,  999.0,  999.0,  999.0,  999.0,  -32.9,  -33.2,  -36.8,  -36.5,  -38.0,  -38.6,  999.0,  999.0,  -41.2,  -42.7,  -42.5,  -41.9,  -42.1,  -41.9,  -42.0,  -41.8,  -41.7,  -42.5,  -42.2,  -41.7,  -41.6,  999.0,  -41.6,  -41.8,  -41.9,  -41.7,  -42.0,  -42.1,  -42.9
2000/11/02 02:10,  999.0,  999.0,  999.0,  999.0,    0.4,    1.2,    4.4,    3.3,    1.3,  999.0,    2.4,    3.9,   -0.6,  999.0,  999.0,  999.0,  999.0,  999.0,  999.0,  999.0,  999.0,  999.0,  999.0,  999.0,  999.0,  999.0,  999.0,  999.0,  999.0,  -38.6,  999.0,  999.0,  999.0,  -41.5,  999.0,  -41.6,  -42.0,  -42.0,  -41.8,  -41.7,  -42.2,  -42.3,  999.0,  -42.9,  999.0,  -42.5,  -42.1,  -42.6,  -41.8,  -41.8,  -42.7,  -42.3,  -41.4,  -42.9,  -41.9,  -42.0,  -42.7,  -41.8
2000/11/02 02:20,  999.0,  999.0,  999.0,    1.5,   -2.1,    0.9,    2.3,    3.8,  999.0,   -2.6,   -2.4,   -1.2,   -6.3,   -4.0,  999.0,   -9.4,  999.0,  999.0,  999.0,  999.0,  999.0,  999.0,  999.0,  999.0,  999.0,  999.0,  999.0,  -37.4,  -35.5,  -37.4,  -38.0,  999.0,  -41.7,  -41.9,  -42.0,  -42.2,  -42.0,  -41.9,  -41.6,  -42.0,  -42.0,  -41.7,  -42.3,  999.0,  -42.2,  -41.4,  -41.4,  -41.2,  -41.5,  -42.2,  -41.6,  -41.5,  -42.7,  -42.1,  -41.0,  -41.5,  -41.2,  -42.0
2000/11/02 02:30,  999.0,  999.0,  999.0,    7.7,    8.6,    3.5,    4.8,    8.4,    4.8,  999.0,   -5.7,  999.0,  999.0,  999.0,  999.0,  999.0,  999.0,  999.0,  999.0,  999.0,  999.0,  999.0,  999.0,  999.0,  999.0,  999.0,  999.0,  999.0,  -34.7,  -35.7,  -37.4,  -37.7,  -40.1,  -41.3,  -41.7,  -41.5,  -42.0,  -41.7,  -41.3,  999.0,  -41.2,  -42.6,  -41.8,  -41.4,  999.0,  -42.3,  -42.8,  -41.7,  999.0,  999.0,  -41.3,  -41.3,  -41.2,  999.0,  999.0,  999.0,  999.0,  999.0
2000/11/02 02:40,  999.0,  999.0,  999.0,    5.2,  999.0,    8.1,  999.0,    5.5,    2.5,  999.0,  999.0,   -0.5,  999.0,  999.0,  999.0,  999.0,  999.0,  999.0,  999.0,  999.0,  999.0,  999.0,  999.0,  999.0,  999.0,  999.0,  999.0,  999.0,  999.0,  -39.4,  -40.8,  -40.9,  -41.5,  -41.8,  999.0,  -41.9,  -42.1,  -41.6,  -41.2,  -41.5,  999.0,  999.0,  999.0,  999.0,  999.0,  999.0,  999.0,  999.0,  999.0,  999.0,  999.0,  999.0,  999.0,  999.0,  999.0,  999.0,  999.0,  999.0
2000/11/02 02:50,  999.0,  999.0,  999.0,  999.0,    0.6,    4.4,    5.3,    3.0,  999.0,    0.4,  999.0,  999.0,   -8.5,   -9.0,   -4.6,   -3.3,  999.0,  999.0,  999.0,  999.0,  999.0,  999.0,  999.0,  999.0,  999.0,  -36.9,  999.0,  -39.9,  999.0,  -41.8,  -42.0,  -41.4,  -42.6,  999.0,  -42.1,  -42.9,  999.0,  999.0,  999.0,  -41.3,  999.0,  -42.4,  -42.0,  -41.7,  -41.9,  -42.1,  -41.4,  999.0,  -41.7,  -42.1,  -41.5,  -42.3,  -41.3,  -42.5,  999.0,  999.0,  999.0,  -41.8
2000/11/02 03:00,  999.0,  999.0,   -0.4,   -1.8,  999.0,   -0.0,   -1.2,  999.0,   -0.3,    0.7,   -0.4,   -2.7,   -3.2,  999.0,  999.0,   -1.7,  999.0,  999.0,  999.0,  999.0,  999.0,  999.0,  -28.7,  999.0,  999.0,  999.0,  999.0,  999.0,  -40.3,  -41.3,  999.0,  -41.5,  999.0,  999.0,  999.0,  -41.8,  -41.8,  999.0,  999.0,  999.0,  -41.4,  -42.4,  -41.8,  -42.1,  999.0,  999.0,  999.0,  999.0,  -42.3,  999.0,  999.0,  -40.8,  999.0,  999.0,  999.0,  999.0,  999.0,  999.0
2000/11/02 03:10,  999.0,  999.0,  999.0,  999.0,  999.0,  999.0,  999.0,  999.0,  999.0,   -1.8,  999.0,   -4.2,  999.0,  999.0,  999.0,   -7.9,  999.0,  999.0,   -6.6,  999.0,  999.0,  -21.2,  999.0,  -23.4,  -25.1,  -29.9,  999.0,  999.0,  -35.3,  -34.8,  -36.0,  -37.3,  -38.6,  -41.2,  -41.8,  -41.8,  -41.9,  -41.3,  -42.2,  -42.8,  -42.4,  -41.6,  -42.0,  -42.0,  999.0,  -42.3,  999.0,  -41.4,  -41.7,  -42.1,  -41.6,  -42.1,  -41.8,  -40.8,  -41.2,  -42.0,  999.0,  -41.9
2000/11/02 03:20,  999.0,  999.0,  999.0,   -2.2,   -0.5,    0.5,    0.1,  -10.3,   -9.8,  999.0,   -1.7,  -21.4,  -20.4,  999.0,  999.0,  999.0,  999.0,  999.0,  999.0,  999.0,  999.0,  999.0,  999.0,  999.0,  999.0,  999.0,  999.0,  999.0,  999.0,  999.0,  999.0,  999.0,  999.0,  999.0,  999.0,  999.0,  999.0,  999.0,  999.0,  999.0,  999.0,  999.0,  999.0,  999.0,  999.0,   -0.4,   -5.3,  999.0,  999.0,  999.0,  999.0,  999.0,  999.0,  999.0,  999.0,  999.0,  999.0,  999.0
2000/11/02 03:30,  999.0,   -1.2,    1.7,    1.7,   -5.9,    0.4,   -2.2,  -12.2,  -12.2,   -1.8,   -3.0,  -18.3,  999.0,  999.0,  999.0,    5.9,  999.0,  999.0,  999.0,  999.0,  999.0,  999.0,  999.0,  999.0,    6.5,  999.0,  999.0,  999.0,  999.0,  999.0,  999.0,  999.0,  999.0,  999.0,  999.0,  999.0,  999.0,  999.0,  999.0,  999.0,  999.0,  999.0,  999.0,  999.0,  999.0,  999.0,  999.0,  999.0,  -10.4,  -23.1,  999.0,  -23.3,  999.0,  999.0,  999.0,  999.0,  999.0,  999.0
2000/11/02 03:40,  999.0,    0.8,   -4.4,  999.0,   -3.6,   -5.4,   19.7,    5.9,    2.1,   21.2,   21.7,    8.3,   12.4,   -4.5,  999.0,  999.0,  999.0,  999.0,  999.0,  999.0,  999.0,  999.0,  999.0,  999.0,  999.0,  999.0,  999.0,  999.0,  999.0,  999.0,  999.0,  999.0,  999.0,  999.0,  999.0,  999.0,  999.0,  999.0,  999.0,  999.0,  999.0,  999.0,  999.0,  999.0,  999.0,  999.0,  999.0,  999.0,  999.0,  999.0,  999.0,  999.0,  999.0,  999.0,  999.0,  999.0,  999.0,  999.0
2000/11/02 03:50,  999.0,   -6.3,  999.0,  999.0,  999.0,  -15.8,    0.4,    1.3,    2.0,  999.0,   -4.6,   -6.5,   -9.3,   -3.2,   -9.5,   -6.1,   -2.5,   -6.4,   -3.7,   -5.4,   -4.8,   -2.9,   -2.8,   -1.7,  999.0,  999.0,  999.0,   -1.0,   -0.5,   -1.5,   -1.6,   -1.1,   -1.2,   -1.4,   -2.1,  999.0,   -3.1,   -3.4,   -4.0,   -2.5,   -0.3,    0.3,  999.0,    2.3,    0.1,   -1.1,   -1.6,   -2.2,   -2.6,   -2.9,   -3.1,   -3.0,   -3.1,   -3.0,   -3.2,   -3.3,   -4.1,   -4.3
2000/11/02 04:00,  999.0,  999.0,   -1.3,   -1.6,   -0.7,    0.4,    0.4,    0.5,   -0.1,   -0.6,   -1.7,   -2.2,   -1.6,   -1.2,   -0.6,   -0.3,   -0.7,   -1.1,   -0.9,   -0.9,   -1.1,   -1.0,   -1.0,   -0.3,    0.2,    0.5,    0.7,    1.0,    1.6,    1.6,    2.0,    1.9,    2.2,  999.0,  999.0,    1.0,    1.2,   -2.9,   -4.8,   -3.6,    0.1,  999.0,  999.0,  999.0,  999.0,   -1.8,   -1.5,   -1.5,   -1.9,   -1.3,   -1.3,   -1.4,   -1.7,   -2.2,   -2.4,   -2.6,   -2.8,   -2.9
2000/11/02 04:10,  999.0,  999.0,  999.0,  999.0,  999.0,    0.8,    1.8,    1.4,    1.1,    0.8,    2.1,   -0.3,   -0.2,    0.5,    0.6,    0.7,    0.4,   -0.1,    0.3,    0.5,    0.7,    0.3,    1.1,    0.9,    2.3,    2.2,    2.3,    2.5,    1.2,    1.8,    0.5,   -0.3,   -3.0,   -1.0,   -0.2,   -2.7,    0.3,   -0.5,   -1.8,   -5.3,   -7.0,   -9.6,    0.5,   -0.2,  999.0,  999.0,   -3.9,   -2.9,   -1.9,   -3.5,   -3.6,  999.0,  999.0,  999.0,  999.0,  999.0,  999.0,  999.0
2000/11/02 04:20,  999.0,  999.0,    3.6,    1.1,  999.0,    2.7,    3.6,    2.8,    2.5,    0.7,  999.0,  999.0,   -0.2,    1.3,  999.0,  999.0,  999.0,  999.0,  999.0,  999.0,  999.0,  999.0,  999.0,  999.0,  999.0,  999.0,  999.0,    0.7,  999.0,  999.0,  999.0,  999.0,  999.0,  999.0,  -14.6,  999.0,  999.0,  999.0,  -15.9,  -16.5,  -15.7,  -15.7,  999.0,  999.0,  999.0,  999.0,  999.0,  999.0,  999.0,  -37.9,  999.0,  -41.1,  999.0,  999.0,  999.0,  -42.1,  -41.9,  -42.5
2000/11/02 04:30,  999.0,  999.0,   -0.1,   -1.3,    0.4,   -3.1,    0.5,   -1.1,  999.0,    0.2,   -0.8,   -1.3,  999.0,  999.0,  999.0,   -4.5,  999.0,  999.0,  999.0,  999.0,  999.0,  999.0,  999.0,  -10.5,  999.0,  999.0,  999.0,  999.0,  999.0,  999.0,  -29.6,  -30.7,  999.0,  -32.5,  -32.5,  -34.5,  -33.8,  -35.5,  -36.7,  -35.8,  -37.5,  -37.0,  999.0,  999.0,  999.0,  999.0,  999.0,  999.0,  -30.8,  -41.4,  999.0,  -42.3,  -42.2,  999.0,  -41.8,  -42.2,  -41.7,  -41.6
2000/11/02 04:40,  999.0,  999.0,   -1.0,  999.0,    2.2,    4.2,   -0.5,   -1.4,   -2.6,   -8.3,  999.0,  999.0,  999.0,   -5.1,   -5.1,  999.0,  999.0,  999.0,  999.0,  -14.7,  -18.3,  999.0,  -19.6,  -20.1,  -19.5,  -18.5,  999.0,  999.0,  999.0,  999.0,  -35.6,  -36.4,  999.0,  -37.0,  -35.3,  -40.8,  -41.8,  -41.5,  -39.9,  -40.7,  999.0,  -40.4,  -41.5,  -41.7,  999.0,  999.0,  -41.3,  999.0,  -42.2,  -38.5,  -40.0,  999.0,  999.0,  -41.2,  -41.2,  -41.5,  -41.3,  -41.4
2000/11/02 04:50,  999.0,  999.0,  999.0,    4.2,    8.7,    4.8,   -0.6,   -1.5,  999.0,   -4.5,  999.0,  999.0,   -0.4,  -21.4,  -21.6,  999.0,  -21.5,  999.0,  -22.2,   -8.6,  -14.2,  -16.7,  999.0,  999.0,  -27.5,  999.0,  999.0,  -13.2,  -32.1,  999.0,  -35.0,  999.0,  -36.1,  -37.6,  -37.7,  999.0,  -40.2,  999.0,  -40.3,  -42.0,  -41.3,  -42.1,  999.0,  -42.4,  -41.7,  -42.7,  -41.9,  999.0,  -42.1,  999.0,  -41.3,  -43.4,  999.0,  999.0,  -42.2,  999.0,  999.0,  -42.5
2000/11/02 05:00,  999.0,    1.8,  999.0,    3.0,    0.7,   -2.1,    0.4,  999.0,  999.0,    1.0,   -2.4,  999.0,  999.0,  999.0,  999.0,  999.0,  999.0,  999.0,  999.0,  999.0,  999.0,  999.0,  -25.4,  999.0,  999.0,  999.0,  999.0,  999.0,  999.0,  999.0,  999.0,  -37.1,  -39.7,  999.0,  999.0,  -41.8,  999.0,  999.0,  999.0,  999.0,  999.0,  -41.8,  999.0,  -42.0,  999.0,  -41.9,  999.0,  999.0,  999.0,  -42.6,  -42.6,  999.0,  999.0,  999.0,  999.0,  999.0,  999.0,  999.0
2000/11/02 05:10,  999.0,   -0.3,   -0.3,    3.7,    0.8,    1.0,  999.0,  999.0,  999.0,  999.0,  999.0,  999.0,  999.0,  999.0,   -3.0,  999.0,  999.0,  999.0,  999.0,  999.0,  999.0,  999.0,  999.0,  999.0,  999.0,  -11.1,  999.0,  999.0,  999.0,  999.0,  999.0,  -35.1,  999.0,  -37.9,  -39.0,  -39.5,  999.0,  999.0,  -41.5,  -43.1,  -42.3,  999.0,  -42.4,  999.0,  -42.9,  -42.5,  999.0,  999.0,  999.0,  999.0,  999.0,  999.0,  -42.8,  999.0,  999.0,  -42.0,  -41.9,  -41.9
2000/11/02 05:20,  999.0,    0.8,    0.7,   -1.5,    1.0,    0.5,  999.0,    2.7,  999.0,  999.0,  999.0,   -4.2,  999.0,  999.0,  999.0,  999.0,  999.0,  999.0,  999.0,  999.0,  999.0,  999.0,  999.0,  999.0,  999.0,  999.0,  999.0,  999.0,  -32.9,  999.0,  -36.2,  -37.0,  -38.7,  -39.0,  -41.5,  -41.6,  -41.7,  -41.6,  999.0,  -41.4,  -41.8,  -41.9,  -42.0,  -42.1,  -42.2,  999.0,  -41.1,  999.0,  -42.2,  999.0,  -42.0,  -41.7,  -42.6,  -42.2,  -42.4,  -41.2,  -41.9,  -41.8
2000/11/02 05:30,  999.0,  999.0,  999.0,   -1.5,   -3.6,   -0.2,  999.0,    1.8,    0.6,  999.0,  999.0,  999.0,  999.0,  999.0,  999.0,  999.0,  -20.3,  999.0,  -21.3,  -21.3,  -23.4,  999.0,  -25.8,  999.0,  -27.0,  -29.2,  -30.4,  -31.2,  -33.2,  999.0,  -34.8,  -36.2,  -36.5,  -38.0,  -40.1,  999.0,  -40.8,  -42.0,  -42.5,  -41.4,  999.0,  -41.4,  -41.4,  -41.4,  -41.5,  -41.7,  -40.7,  -41.4,  -42.2,  -42.3,  -41.9,  -41.4,  -41.7,  -41.4,  -41.9,  -42.0,  -41.7,  -41.7
2000/11/02 05:40,  999.0,    1.9,    0.8,    2.8,    1.6,    2.1,  999.0,    0.6,   -0.6,   -0.5,  999.0,   -1.6,    1.9,  999.0,  999.0,  999.0,  999.0,  999.0,  999.0,   -2.3,  999.0,  -25.0,  999.0,  999.0,  -29.2,  -29.5,  -30.7,  -31.4,  -32.8,  999.0,  -35.4,  -36.6,  -37.2,  -38.3,  999.0,  999.0,  -41.9,  999.0,  -42.1,  -42.1,  -42.7,  -41.6,  999.0,  -42.4,  -42.0,  -41.5,  999.0,  -41.7,  999.0,  -41.8,  -41.4,  -41.8,  999.0,  999.0,  -42.0,  999.0,  999.0,  -42.4
2000/11/02 05:50,  999.0,  999.0,  999.0,    2.9,    2.0,    1.4,    1.4,   -0.0,  999.0,  999.0,   -1.5,   -0.1,   -0.4,   -1.7,   -1.9,  999.0,  999.0,  999.0,  999.0,  999.0,  999.0,  999.0,  999.0,  999.0,  -31.4,  -33.5,  -34.6,  -36.4,  -38.5,  -40.1,  -41.8,  999.0,  -41.6,  -41.7,  -41.2,  -41.5,  -41.7,  -41.7,  -41.6,  999.0,  -42.0,  999.0,  -41.5,  -32.4,  999.0,  999.0,  -41.4,  999.0,  -20.4,  999.0,  999.0,  999.0,  999.0,    1.0,    0.7,    1.2,    0.8,    0.7
2000/11/02 06:00,  999.0,  999.0,  999.0,    2.2,  999.0,  999.0,  999.0,    2.0,    1.2,  999.0,  999.0,   -3.8,  999.0,   -1.2,   -0.9,  999.0,  999.0,  999.0,  999.0,  999.0,  999.0,  999.0,  999.0,  -27.8,  -28.1,  -29.9,  -30.9,  999.0,  999.0,  999.0,  999.0,  999.0,  -36.7,  999.0,  999.0,  999.0,  -41.5,  999.0,  999.0,  999.0,  999.0,  -26.3,  999.0,  -41.8,  999.0,  -41.9,  -41.4,  999.0,  999.0,  999.0,    1.8,  999.0,  -41.7,    0.2,  -13.8,  -42.1,    0.7,    1.1
2000/11/02 06:10,  999.0,    0.4,  999.0,  999.0,   -3.9,   -1.2,    0.3,   -0.5,   -1.4,   -2.7,  999.0,  999.0,  999.0,  999.0,   -4.1,   -2.1,  999.0,  999.0,  999.0,  999.0,  999.0,  999.0,  999.0,  999.0,  -29.3,  999.0,  999.0,  -33.5,  -35.0,  999.0,  -37.7,  999.0,  -40.5,  999.0,  999.0,  999.0,  999.0,  999.0,  999.0,  999.0,  999.0,  999.0,  999.0,  999.0,  999.0,  999.0,  999.0,  999.0,  999.0,  999.0,  999.0,  999.0,  999.0,  999.0,    0.8,    0.9,  999.0,    1.0
2000/11/02 06:20,  999.0,    5.3,  999.0,    1.2,    1.1,    0.6,   -1.0,   -0.1,  999.0,   -1.2,   -0.7,   -0.8,  999.0,  999.0,  999.0,  999.0,  999.0,  999.0,  999.0,  999.0,  999.0,  999.0,  999.0,  999.0,  999.0,  -30.9,  -32.3,  999.0,  999.0,  999.0,  999.0,  999.0,  999.0,  999.0,  999.0,  999.0,  999.0,  999.0,  999.0,  999.0,  999.0,  999.0,  999.0,  999.0,    0.3,    0.8,  999.0,    2.0,    1.0,    0.6,  999.0,  999.0,    1.3,  999.0,  999.0,  999.0,    0.8,  999.0
2000/11/02 06:30,  999.0,   -3.5,   -2.7,   -0.4,   -1.4,    0.4,   -1.7,   -2.0,   -0.6,   -2.4,   -0.8,  999.0,  999.0,  999.0,  999.0,  999.0,  999.0,  999.0,  999.0,  999.0,  999.0,  999.0,  999.0,  999.0,  -24.5,  999.0,  -25.3,  -26.3,  999.0,  999.0,  999.0,  999.0,  999.0,  -29.8,  -29.9,  -30.1,  999.0,  999.0,  999.0,  999.0,  -33.0,  999.0,  999.0,  -34.8,  -35.4,  -35.2,  999.0,  -37.1,  -37.5,  -38.0,  -38.2,  999.0,  999.0,  999.0,  -40.2,  -41.2,  999.0,  999.0
2000/11/02 06:40,  999.0,  999.0,  999.0,  999.0,  999.0,  999.0,   -0.7,  999.0,   -5.0,   -2.9,   -5.5,   -5.8,  999.0,  999.0,  999.0,  999.0,  999.0,  999.0,  999.0,  999.0,  999.0,  999.0,  999.0,  999.0,  999.0,  999.0,  -26.7,  999.0,  999.0,  999.0,  -28.6,  999.0,  -29.9,  -30.8,  -30.6,  -33.5,  -33.3,  -34.0,  -35.9,  -35.9,  -35.5,  -36.8,  -37.3,  -38.4,  -38.4,  -39.7,  -40.5,  -40.8,  -41.5,  999.0,  -40.8,  -41.6,  999.0,  999.0,  -41.6,  -41.9,  -42.0,  999.0
2000/11/02 06:50,  999.0,   -3.2,   -0.2,   -1.3,   -0.8,    1.3,   -0.3,   -1.4,   -2.5,  999.0,    0.8,   -3.8,  999.0,  999.0,  999.0,  999.0,  999.0,  999.0,  999.0,  999.0,  999.0,  999.0,  999.0,  999.0,  999.0,  999.0,  999.0,  999.0,  999.0,  999.0,  999.0,  999.0,  999.0,  999.0,  999.0,  999.0,  999.0,  999.0,  999.0,  999.0,  999.0,  999.0,  999.0,  999.0,  999.0,  -42.5,  -41.6,  999.0,  999.0,  -42.1,  999.0,  -42.5,  -41.7,  999.0,  999.0,  -41.8,  -41.8,  999.0
2000/11/02 07:00,  999.0,  999.0,    3.3,  999.0,    2.1,    1.0,    1.6,    3.3,   -4.4,    0.5,  999.0,  999.0,  999.0,  999.0,  999.0,  999.0,  999.0,  999.0,  999.0,  999.0,  999.0,  999.0,  999.0,  999.0,  999.0,  999.0,  999.0,  999.0,  -30.5,  -31.8,  999.0,  -17.6,  -34.7,  999.0,  -36.0,  -36.3,  -38.1,  999.0,  999.0,  999.0,  999.0,  999.0,  999.0,  999.0,  -41.0,  -41.5,  -42.1,  -41.8,  -41.9,  999.0,  -41.7,  999.0,  999.0,  -41.5,  -42.4,  999.0,  999.0,  -41.2
2000/11/02 07:10,  999.0,  999.0,    2.8,  999.0,    3.6,   -1.1,   -1.6,    1.0,   -9.8,   -1.5,  999.0,   -0.1,  999.0,  999.0,   -2.1,  999.0,  999.0,  999.0,  999.0,  999.0,  999.0,  999.0,  999.0,  999.0,  999.0,  999.0,  999.0,  999.0,  999.0,  999.0,  999.0,  999.0,  999.0,  999.0,  999.0,  999.0,  999.0,  999.0,  999.0,  999.0,  999.0,  999.0,  999.0,  999.0,  999.0,  999.0,  999.0,  999.0,  999.0,  999.0,  999.0,  999.0,  999.0,  999.0,  999.0,  999.0,  999.0,  999.0
2000/11/02 07:20,  999.0,  999.0,  999.0,    3.9,  999.0,    0.7,  999.0,  999.0,  999.0,  999.0,  999.0,  999.0,    1.0,    4.3,    3.7,    3.5,   10.9,    3.4,  999.0,    3.0,  999.0,  999.0,  999.0,  999.0,  999.0,  999.0,  999.0,  999.0,  999.0,  999.0,  999.0,  999.0,  999.0,  999.0,  999.0,  999.0,  999.0,  999.0,  999.0,  999.0,  999.0,  999.0,  999.0,  999.0,  999.0,  999.0,  999.0,  999.0,  999.0,  999.0,  999.0,  999.0,  999.0,  999.0,  999.0,  999.0,  999.0,  999.0
2000/11/02 07:30,  999.0,  999.0,  999.0,  999.0,  999.0,   -4.2,  999.0,   -6.0,  999.0,   -3.5,   -1.8,    2.5,    1.3,    1.6,    2.5,   -3.7,   -2.1,  999.0,  999.0,  999.0,  999.0,  999.0,  999.0,    3.2,  999.0,  999.0,  999.0,  999.0,  999.0,  999.0,  999.0,  999.0,  999.0,  999.0,  999.0,  999.0,  999.0,  999.0,   19.3,  999.0,  999.0,  999.0,  999.0,  999.0,  999.0,  999.0,  999.0,  999.0,  999.0,  999.0,   18.2,  999.0,  999.0,  999.0,  999.0,  999.0,  999.0,   20.8
2000/11/02 07:40,  999.0,    0.2,    1.9,    1.8,    1.4,    1.3,  999.0,   -1.9,    0.9,  999.0,  999.0,  999.0,    1.0,   -0.3,   -1.7,   -8.9,  999.0,   -2.2,  999.0,  999.0,    1.5,  999.0,  999.0,  999.0,  999.0,  999.0,  999.0,  999.0,  999.0,  999.0,  999.0,  999.0,  999.0,  999.0,  999.0,  999.0,  999.0,  999.0,  999.0,  999.0,  999.0,  999.0,  999.0,  999.0,  999.0,  999.0,  999.0,  999.0,  999.0,  999.0,  999.0,  999.0,  999.0,  999.0,  999.0,  999.0,  999.0,  999.0
2000/11/02 07:50,  999.0,    0.5,   -0.9,    0.8,    1.3,   -1.2,   -1.1,   -1.5,   -1.0,   -3.2,  999.0,  999.0,  999.0,  999.0,    3.9,   -1.9,    3.7,   -1.8,   -1.0,    0.6,  999.0,  999.0,  999.0,  999.0,  999.0,  999.0,  999.0,  999.0,  999.0,  999.0,  999.0,  999.0,  999.0,  999.0,  999.0,  999.0,  999.0,  999.0,  999.0,  999.0,  999.0,  999.0,  999.0,  999.0,  999.0,  999.0,  999.0,  999.0,  999.0,  999.0,  999.0,  999.0,  999.0,  999.0,  999.0,  999.0,  999.0,  999.0
2000/11/02 08:00,  999.0,    0.4,   -0.0,    1.0,    1.4,    1.2,    1.1,  999.0,  999.0,  999.0,  999.0,  999.0,  999.0,    3.5,    1.4,  999.0,  999.0,   -0.2,   -0.5,  999.0,  999.0,  999.0,  999.0,  999.0,  999.0,  999.0,  999.0,  999.0,  999.0,  999.0,  999.0,  999.0,  999.0,  999.0,  999.0,  999.0,  999.0,  999.0,  999.0,  999.0,  999.0,  999.0,  999.0,  999.0,  999.0,  999.0,  999.0,  999.0,  999.0,  999.0,  999.0,  999.0,  999.0,  999.0,  999.0,  999.0,  999.0,  999.0
2000/11/02 08:10,  999.0,   -0.2,    0.0,    1.6,    1.3,    0.5,   -0.9,    0.6,    0.2,   -6.7,  999.0,  999.0,  999.0,  999.0,  999.0,   -1.2,   -0.4,  999.0,  999.0,  999.0,  999.0,  999.0,  999.0,  999.0,  999.0,  999.0,  999.0,  999.0,  999.0,  999.0,  999.0,  999.0,  999.0,  999.0,  999.0,  999.0,  999.0,  999.0,  999.0,  999.0,  999.0,  999.0,  999.0,  999.0,  999.0,  999.0,  999.0,  999.0,  999.0,  999.0,  999.0,  999.0,  999.0,  999.0,  999.0,  999.0,  999.0,  999.0
2000/11/02 08:20,  999.0,    1.8,   -1.5,  999.0,  999.0,    0.3,   -0.5,   -1.8,  999.0,   -1.9,  999.0,  999.0,  999.0,  999.0,  999.0,  999.0,  999.0,  999.0,  999.0,  999.0,  999.0,  999.0,  999.0,  999.0,  999.0,  999.0,  999.0,  999.0,  999.0,  999.0,  999.0,  999.0,  999.0,  999.0,  999.0,  999.0,  999.0,  999.0,  999.0,  999.0,  999.0,  999.0,  999.0,  999.0,  999.0,  999.0,  999.0,  999.0,  999.0,  999.0,  999.0,  999.0,  999.0,  999.0,  999.0,  999.0,  999.0,  999.0
2000/11/02 08:30,  999.0,    0.6,    0.3,    0.4,    0.5,   -0.2,   -1.5,    0.0,  999.0,   -5.1,  999.0,  999.0,  999.0,  999.0,  999.0,  999.0,   -1.3,   -0.3,   -8.8,  999.0,  999.0,  999.0,  999.0,  999.0,  999.0,  999.0,  999.0,  999.0,  999.0,  999.0,  999.0,  999.0,  999.0,  999.0,  999.0,  999.0,  999.0,  999.0,  999.0,  999.0,  999.0,  999.0,  999.0,  999.0,  999.0,  999.0,  999.0,  999.0,  999.0,  999.0,  999.0,  999.0,  999.0,  999.0,  999.0,  999.0,  999.0,  999.0
2000/11/02 08:40,  999.0,    0.4,    0.4,    0.6,    0.9,    0.1,   -1.8,   -3.0,  999.0,  999.0,   -1.8,  999.0,  999.0,  999.0,  999.0,   -0.1,   -3.2,  999.0,   -0.1,    1.5,  999.0,  999.0,  999.0,  999.0,  999.0,  999.0,  999.0,  999.0,  999.0,  999.0,  999.0,  999.0,  999.0,  999.0,  999.0,  999.0,  999.0,  999.0,  999.0,   31.7,  999.0,   32.1,  999.0,  999.0,  999.0,  999.0,   34.7,  999.0,   35.4,   35.9,  999.0,  999.0,   37.3,  999.0,  999.0,  999.0,   39.5,   39.9
2000/11/02 08:50,  999.0,    0.7,    1.5,    1.2,    0.3,   -1.3,   -3.2,   -4.9,   -3.5,   -3.2,   -3.1,  999.0,  999.0,  999.0,  999.0,  999.0,  999.0,    0.2,   -0.3,  999.0,  999.0,  999.0,  999.0,  999.0,  999.0,  999.0,  999.0,  999.0,  999.0,  999.0,  999.0,  999.0,  999.0,  999.0,  999.0,  999.0,    1.0,  999.0,    1.2,    1.0,    7.4,    3.6,  999.0,    3.3,    2.4,    0.9,    2.0,    0.8,    0.7,    0.4,    0.6,    0.8,    0.6,  999.0,  999.0,  999.0,  999.0,  999.0
2000/11/02 09:00,  999.0,    1.1,  999.0,    0.9,    1.1,    0.2,   -3.2,   -0.5,   -2.0,   -1.8,    0.4,    5.8,    5.1,  999.0,  999.0,  999.0,  999.0,  999.0,  999.0,  999.0,  999.0,  999.0,  999.0,  999.0,  999.0,  999.0,  999.0,  999.0,  999.0,  999.0,  999.0,    1.1,  999.0,  999.0,    1.9,    0.3,    0.7,    0.5,    0.6,    0.7,    0.2,    0.7,    0.8,    0.7,    0.6,    0.9,    0.9,    0.8,    0.6,    0.8,    0.2,    1.0,    0.9,    0.7,    1.4,    0.9,    0.7,  999.0
2000/11/02 09:10,  999.0,    4.9,    1.0,    1.3,    0.1,   -0.9,   -0.7,   -0.9,   -2.2,   -3.9,  999.0,  999.0,  999.0,  999.0,  999.0,  999.0,   20.7,  999.0,   20.3,  999.0,   16.7,   15.1,  999.0,   12.3,   11.8,    8.6,    8.7,   10.1,    6.0,    4.8,    6.1,    0.6,    0.7,    0.4,    0.7,    1.5,    0.1,    0.3,    0.9,   -0.0,    0.5,    0.5,    0.6,    1.2,    1.3,    1.0,    0.9,    1.0,    1.2,    0.7,    0.6,    1.3,  999.0,   -0.0,    0.2,    0.5,    0.6,    0.0
2000/11/02 09:20,  999.0,  999.0,  -19.0,  999.0,  999.0,   -1.2,  999.0,  999.0,  999.0,  999.0,   -3.3,  999.0,  999.0,  -21.8,  -10.0,  -15.5,  -21.3,  -13.9,    0.1,    3.3,   10.0,    5.4,   -0.8,  999.0,   10.4,   -0.5,   -1.0,   -5.7,    8.3,    9.1,   20.6,   10.0,   18.4,    1.4,   20.1,   -1.7,  -20.2,   -0.3,  -17.1,   -0.7,   -6.7,   20.2,   19.0,   20.6,   16.7,   -7.2,  -41.6,  -41.7,  -39.5,  -35.5,  -19.0,  -15.0,  -20.7,    0.1,  -20.4,  -21.4,  -42.4,    0.1
2000/11/02 09:30,  999.0,  999.0,  999.0,    1.1,    2.0,    0.4,    1.0,  999.0,  999.0,  999.0,  999.0,  999.0,  -21.0,  -22.2,  -20.6,  -19.8,  -16.8,  -17.7,  -10.8,  -12.7,  -11.2,   -8.2,   -1.2,   -6.4,   -5.6,   -5.1,  -14.1,   -0.5,   -7.5,   -0.4,   -0.9,   -0.9,  -17.1,   -0.5,  -13.8,  999.0,  -14.4,  -14.2,  -14.6,  -14.6,   -0.9,  -14.1,  -14.4,  -21.4,  -21.3,  -21.3,  -42.3,  -14.5,  -14.6,  -21.1,  -21.5,   -1.2,  -14.2,  -21.2,  -21.0,  -21.2,  -14.2,   -0.5
2000/11/02 09:40,  999.0,  999.0,    0.3,    0.5,    1.7,   -1.4,   -1.9,   -4.3,  999.0,   -2.6,   -3.3,  999.0,  999.0,  999.0,  999.0,  999.0,  999.0,  999.0,  -21.4,  -26.1,  -26.6,  999.0,  999.0,  999.0,  -30.2,  -28.4,  -29.1,  -30.2,  -34.9,  -33.1,  -35.9,  -34.2,  -37.0,  -38.0,  -39.0,  -39.2,  999.0,  -41.9,  -41.8,  -42.4,  -42.1,  -42.3,  -41.9,  -41.8,  999.0,  -42.3,  -42.8,  -41.5,  999.0,  -41.1,    0.9,  999.0,    1.2,    1.2,  999.0,  999.0,  999.0,  999.0
2000/11/02 09:50,  999.0,  999.0,  999.0,   -2.6,   -0.9,   -0.9,   -1.9,  999.0,   -3.7,   -2.2,   -1.6,  999.0,  999.0,  999.0,  999.0,  999.0,  999.0,  999.0,  -21.3,  -23.1,  -26.3,  -25.6,  -27.0,  -28.3,  -29.6,  -30.4,  -31.7,  999.0,  -33.6,  -34.3,  -35.0,  -36.9,  -37.8,  -38.4,  -40.2,  -41.1,  -41.9,  -41.9,  -41.9,  -41.9,  -42.2,  -42.1,  -41.7,  -42.7,  -41.7,  -41.9,  -42.3,  -41.7,  -41.9,  -41.5,  -41.4,  -41.6,  -41.9,  -42.1,  -41.5,  999.0,  -43.0,  -41.8
2000/11/02 10:00,  999.0,  999.0,   -1.1,    1.6,    0.2,   -0.6,  999.0,  999.0,   -4.1,   -2.7,   -3.3,  999.0,  999.0,  999.0,  999.0,  999.0,  999.0,  -22.2,  -21.9,  -24.4,  -24.3,  -26.5,  -18.0,  -27.0,  -29.7,  -29.8,  -21.5,  -21.5,  -22.3,  -33.5,  -35.1,  -18.2,  -17.8,  -19.5,  -19.8,  -41.5,  -14.3,  -38.1,  -41.9,  -36.5,  -41.8,  -24.0,  -19.6,  -41.8,  -42.2,  -41.8,  -41.5,  -41.5,  -41.5,  -42.0,  999.0,  -42.0,  -41.8,  -41.0,  -41.8,  -21.7,  -34.6,    0.9
2000/11/02 10:10,  999.0,   -3.6,   -1.6,   -1.9,   -8.0,   -8.2,   -6.4,   -6.1,   -7.2,   -5.3,   -4.3,   -4.3,   -4.8,   -6.2,   -5.8,   -4.8,   -3.9,   -4.7,   -4.6,   -4.0,   -3.1,   -0.9,    1.4,   -0.5,    0.2,   -1.3,    0.0,    1.8,   -2.3,   -2.3,   -3.5,   -3.4,   -0.9,   -0.7,   -0.9,   -0.6,   -0.7,   -2.3,   -1.8,   -1.2,   -0.5,   -0.6,   -0.3,    1.1,    1.3,    0.7,    1.0,    3.5,    4.1,    1.9,    3.3,    2.3,    4.0,    4.8,    5.3,    5.0,    5.0,   14.2
2000/11/02 10:20,   -0.2,   -5.6,   -5.0,   -5.2,   -4.9,   -3.2,   -2.3,   -3.3,   -3.9,   -3.2,   -3.3,   -5.4,   -5.3,   -4.8,   -4.7,   -4.4,   -4.5,   -4.0,   -4.0,   -4.0,   -3.4,   -2.9,   -2.5,   -2.0,   -2.3,   -2.8,   -2.9,   -3.3,   -4.1,   -2.5,   -2.5,   -1.9,   -1.5,   -2.0,   -0.9,   -0.1,    0.5,    1.0,    2.0,    0.7,    1.3,    1.6,    0.4,   -1.4,   -2.2,   -3.0,   -2.4,   -2.2,   -2.4,   -2.7,   -3.1,   -3.6,   -4.1,   -4.3,   -4.2,   -4.4,   -4.1,   -5.0
2000/11/02 10:30,    1.5,   -2.1,   -3.2,   -1.9,   -3.5,   -2.1,   -2.5,   -0.6,    0.3,    0.2,   -0.8,   -0.0,    0.2,   -0.5,   -0.3,   -0.1,   -0.7,    0.4,    1.7,    1.4,    2.9,    0.3,    4.5,    5.1,   -2.3,   -2.6,   -2.2,   -2.8,   -3.1,   -3.1,   -2.9,   -2.5,   -1.6,   -1.0,    3.4,    3.9,    3.7,    0.4,    5.6,    6.3,    4.8,    4.4,    1.3,   -0.8,   -2.5,   -3.6,   -3.7,   -3.9,   -4.3,   -4.6,   -4.1,   -4.0,   -4.0,   -1.4,   -2.7,   -3.4,  999.0,  999.0
2000/11/02 10:40,    9.7,    1.2,    5.3,    2.3,    1.4,    0.9,    0.3,    2.1,    3.0,    1.3,    0.4,    0.9,    1.4,    1.4,    1.2,    2.1,    0.7,   -3.6,   -3.4,   -1.8,   -0.0,    0.1,   -2.0,   -2.3,   -2.8,   -3.1,   -2.8,   -3.7,   -4.0,   -6.6,   -4.4,   -5.0,   -5.1,   -5.3,   -4.3,   -6.5,   -6.8,   -6.5,   -6.2,   -6.4,   -6.3,   -5.9,   -5.8,   -5.8,   -6.2,   -9.4,   -7.9,   -7.2,   -8.1,   -6.9,   -7.1,   -5.5,  999.0,  999.0,  999.0,  999.0,  999.0,  999.0
2000/11/02 10:50,   -1.5,   -0.8,    0.5,    0.8,    1.6,    2.5,   -0.8,   -1.8,   -1.1,    1.8,    1.0,   -1.0,    0.7,   -0.2,    1.8,    1.6,   -0.3,    1.1,    1.2,    0.4,    0.3,    1.1,    1.6,    3.7,    6.9,    5.6,    7.8,    5.2,    3.5,    4.3,   10.8,    5.4,   10.8,    5.6,   12.0,   12.6,   13.9,    8.4,    9.4,    9.8,  999.0,  999.0,  999.0,  999.0,  999.0,  999.0,  999.0,  999.0,    8.2,  999.0,  999.0,  999.0,  999.0,  999.0,  999.0,  999.0,  999.0,  999.0
2000/11/02 11:00,  999.0,    0.4,    0.1,    0.5,    0.2,   -1.0,   -1.7,   -7.1,  999.0,   -1.3,   -1.5,   -1.6,   -2.7,   -2.9,  999.0,   -8.1,  999.0,  999.0,  999.0,  999.0,  999.0,  -21.1,  999.0,  -22.7,   -0.8,  999.0,  -11.1,  -12.8,   -0.1,    1.6,  -11.4,  -10.4,   -9.4,    9.2,   12.2,   -8.7,   -8.6,   12.8,  999.0,   -7.8,  999.0,  999.0,  999.0,  999.0,  999.0,  999.0,   -0.4,  -37.4,  -37.9,  999.0,  999.0,  999.0,  999.0,  999.0,  -41.2,  999.0,  999.0,  -42.0
2000/11/02 11:10,  999.0,    1.9,    0.4,    0.1,    0.1,   -0.1,    5.7,   -0.9,  999.0,  999.0,   -2.1,  999.0,  999.0,  999.0,  999.0,  999.0,  999.0,  -17.6,  999.0,  999.0,   -0.6,   -0.7,  999.0,   -0.8,  999.0,  999.0,   -2.5,  999.0,   -1.1,   -1.0,   -1.1,  -18.3,  -18.6,  999.0,  -19.2,  999.0,  999.0,  999.0,  999.0,  999.0,  999.0,   -7.4,   -2.3,    1.1,    0.7,   -6.4,   -4.5,   -3.5,   -3.3,   -3.1,   -3.0,   -3.0,   -2.3,  999.0,   -0.5,   -1.2,  999.0,  999.0
2000/11/02 11:20,    0.1,  999.0,  999.0,  999.0,  999.0,  999.0,   -0.8,   -1.3,   -0.0,    0.7,    1.1,  999.0,  999.0,    2.7,    1.2,  999.0,  999.0,   -0.4,   -2.2,   -0.1,    0.3,   -1.0,    0.7,    1.2,    0.2,   -1.2,  999.0,    0.9,    0.2,    1.8,   -0.6,   -0.9,   -1.2,  999.0,   -0.4,   -2.8,   -3.2,  999.0,   -7.2,   -8.0,   -5.1,   -5.3,    1.1,  999.0,  999.0,  999.0,   -0.1,  999.0,  999.0,  999.0,  999.0,  -17.9,  999.0,  -17.5,  999.0,  -12.8,   -9.6,   -6.4
2000/11/02 11:30,    6.4,   42.2,  999.0,   21.0,   19.3,   19.1,   16.7,   13.2,  999.0,  999.0,   -1.0,   -0.6,   -0.6,   -0.1,   -1.9,   -1.0,   -0.6,   -0.4,   -0.5,   -0.6,   -0.5,   -0.5,   -0.6,   -0.7,   -0.7,   -0.9,   -0.8,   -0.9,   -1.1,   -0.9,   -0.5,  999.0,   -0.7,   -1.4,   -0.8,   -0.8,   -0.6,   -0.5,   -1.2,   -1.0,   -0.6,   -1.0,  999.0,   -1.0,   -0.7,   -1.0,   -1.8,  999.0,  999.0,  999.0,   -0.5,   -0.8,  999.0,  999.0,   -0.7,  999.0,   -1.2,   -0.9
2000/11/02 11:40,   -0.7,  999.0,  999.0,   20.6,   19.4,  999.0,  999.0,  999.0,  999.0,   -0.5,   -0.1,   -1.2,   -0.6,   -1.2,   -1.3,   -1.3,   -0.9,   -0.9,   -0.7,   -1.3,   -0.8,   -0.8,   -0.1,   -0.7,   -0.8,   -1.0,   -0.8,   -0.2,   -1.1,   -0.7,   -1.0,   -0.6,   -1.0,   -1.3,   -0.9,   -1.4,   -1.9,   -0.9,   -0.7,   -0.8,  999.0,   -0.4,   -0.8,   -1.0,   -1.2,   -0.9,   -0.5,   -0.9,   -0.1,   -1.1,   -0.2,   -1.1,   -0.6,   -1.5,  999.0,   -1.0,   -1.4,   -0.7
2000/11/02 11:50,   -0.7,   -1.0,   -1.0,   -0.7,   -1.2,   -1.3,   -0.7,   -1.0,  999.0,   -0.7,  999.0,   -0.6,   -0.3,   -1.1,   -0.7,   -0.7,   -0.3,   -1.0,   -1.0,   -0.8,   -0.7,   -0.7,   -1.1,   -1.0,   -0.8,   -0.9,   -0.8,   -0.5,   -0.4,   -0.3,   -0.8,   -0.8,   -0.8,   -0.7,   -0.8,   -0.5,    0.3,   -0.7,   -0.1,   -0.8,   -0.5,   -0.5,   -0.5,  999.0,   -0.9,   -0.7,   -0.9,   -1.1,   -1.1,   -1.2,   -1.0,   -0.9,   -1.0,   -0.9,   -1.1,   -0.6,   -0.2,   -0.8
2000/11/02 12:00,   -9.9,  999.0,   -0.1,    4.2,    2.2,   -6.4,  -11.2,  -21.4,  -21.7,  -12.3,  -12.3,  999.0,  -21.6,  999.0,  -21.8,  999.0,   -8.7,  -13.7,   -1.0,   -4.0,   -2.2,   -0.9,  999.0,   -0.2,   -1.2,   -0.9,   -0.9,  999.0,  999.0,  999.0,  999.0,   -0.6,  999.0,  999.0,   -1.1,  999.0,  999.0,   -0.7,   -0.5,   -0.7,   -0.2,   -0.7,   -0.6,   -0.6,   -0.4,  999.0,   -0.8,   -0.8,   -1.6,   -0.8,  999.0,  999.0,   -0.9,   -0.3,   -0.5,   -0.8,   -0.8,   -1.2
2000/11/02 12:10,  999.0,  999.0,   -0.3,    0.3,   -0.4,   -1.2,   -1.9,   -2.9,  999.0,  999.0,  999.0,  999.0,   20.9,   20.8,   21.7,   21.0,   21.7,   22.3,   23.4,  999.0,  999.0,   25.5,   25.9,  999.0,  999.0,  999.0,  999.0,  999.0,  999.0,  999.0,  999.0,  999.0,  999.0,  999.0,  999.0,  999.0,  999.0,  999.0,  999.0,  999.0,   -2.4,   -1.4,   -0.6,  999.0,   -0.8,  999.0,  999.0,  999.0,  999.0,   -1.2,   -0.7,   -0.9,   -0.9,  999.0,  999.0,  999.0,   -0.8,   -0.9
2000/11/02 12:20,  999.0,   10.7,    7.4,   16.9,   21.7,   10.7,   -2.0,    9.7,   21.6,   21.2,  999.0,   21.5,   21.0,   20.5,   21.1,   21.0,   21.1,   21.1,   21.5,   22.6,   23.6,  999.0,   25.0,   24.1,   24.8,  999.0,  999.0,  999.0,  999.0,  999.0,  999.0,  999.0,  999.0,  999.0,  999.0,  999.0,  999.0,  999.0,  999.0,  999.0,  999.0,   -3.7,   -2.5,   -5.3,   -1.3,   -4.5,  999.0,   -3.8,   -5.5,   -1.1,   -2.7,   -4.0,   -0.4,  999.0,  999.0,  999.0,  999.0,   -0.8
2000/11/02 12:30,  999.0,   21.7,   21.6,   21.7,   21.4,   21.2,   21.5,   21.7,  999.0,  999.0,  999.0,   20.6,  999.0,  999.0,   22.0,   21.7,   22.0,   21.2,  999.0,  999.0,  999.0,  999.0,  999.0,  999.0,  999.0,  999.0,  999.0,  999.0,  999.0,  999.0,  999.0,  999.0,  999.0,  999.0,  999.0,  999.0,  999.0,  999.0,  999.0,  999.0,  999.0,  999.0,  999.0,  999.0,  999.0,  999.0,  999.0,  999.0,  999.0,  999.0,  999.0,  999.0,  999.0,  999.0,  999.0,  999.0,  999.0,  999.0
2000/11/02 12:40,   -5.3,    6.6,    8.4,    6.1,    4.4,   -2.7,   -5.2,   -4.2,    8.9,   -3.4,   -2.5,   -1.5,   -0.9,   -0.4,    0.8,  -16.4,   -0.7,  -12.0,   -9.6,  -11.2,   -5.6,   -3.9,   -8.5,   -1.2,   -1.3,   -1.6,   -2.1,   -6.7,   -6.5,   -6.5,   -5.9,   -5.5,   -5.3,   -6.3,   -6.9,   -7.2,   -7.1,   -7.2,   -7.5,   -9.7,    1.1,    2.8,    0.4,   -1.4,   -2.9,   -2.4,   -2.6,   -3.2,   -4.7,   -5.8,   -7.0,   -6.9,   -6.8,   -7.7,   -7.4,   -8.2,   -5.9,  999.0
2000/11/02 12:50,  999.0,   -1.8,   -0.3,    0.0,   -0.8,   -0.7,   -1.1,   -1.4,   -1.6,   -1.0,    0.4,    0.9,    0.9,    0.7,    0.0,    0.1,    0.9,    1.7,    1.9,    1.8,    0.9,   -0.2,   -1.0,   -1.4,   -1.3,   -1.1,   -1.7,   -1.2,   -1.7,   -1.5,   -1.5,   -1.6,   -2.2,   -2.1,   -2.2,   -1.5,   -1.4,   -1.1,   -1.4,    0.6,    1.7,    2.7,    1.4,    0.5,    0.0,   -1.4,   -0.9,   -2.1,   -3.3,  999.0,   -7.7,  999.0,  999.0,  999.0,  999.0,  999.0,  999.0,  999.0
2000/11/02 13:00,  999.0,   -0.2,    0.7,    1.3,    1.1,    0.4,   -0.7,   -1.2,   -1.4,   -0.8,   -0.8,    0.5,    0.9,    0.7,    0.3,    0.2,    4.6,    1.8,    6.2,    5.5,    5.1,    4.5,    0.2,   -0.1,    1.1,    3.3,   -0.5,   -3.8,    1.6,   -1.2,    0.8,    0.4,  999.0,   -1.5,    0.7,  999.0,  999.0,  999.0,   -4.6,   -4.7,   -2.7,    3.9,    2.2,   -1.5,   -3.4,   -4.0,   -4.1,   -5.3,   -5.9,   -6.7,   -7.2,   -7.2,   -7.0,   -7.0,   -7.3,   -6.6,   -6.9,   -7.4
2000/11/02 13:10,  999.0,   -0.2,   -4.4,   -3.9,   -2.2,   -2.9,   -2.3,    0.4,   -2.2,   -2.1,   -2.0,   -2.1,   -2.5,   -2.0,   -1.3,   -0.5,   -0.3,   -0.2,   -0.0,   -1.1,   -2.5,   -3.4,   -3.8,   -4.1,   -5.0,   -4.9,   -5.2,   -6.0,   -5.9,   -7.0,   -7.2,   -7.5,   -7.1,   -6.5,   -6.0,   -5.1,   -4.7,   -4.3,   -4.8,   -3.1,    0.1,    2.7,    2.2,   -0.8,   -2.7,   -2.7,   -2.2,   -2.4,   -2.8,   -3.2,   -3.8,   -4.4,   -4.5,   -3.4,   -5.3,   -4.8,  999.0,  999.0
2000/11/02 13:20,  999.0,    0.4,    1.0,    1.3,    0.8,   -0.2,   -1.2,   -2.2,   -1.4,   -1.3,   -1.1,   -1.2,   -2.7,   -1.5,   -1.1,   -0.2,    0.3,    0.3,    0.1,   -0.5,   -1.0,   -2.7,   -3.1,   -2.1,   -2.4,   -2.0,   -2.5,   -2.0,   -4.9,   -4.8,   -5.4,   -4.1,   -3.9,   -4.1,   -3.3,   -2.9,   -3.0,   -2.0,   -2.0,   -1.4,    0.5,    1.3,   -0.8,   -2.8,   -3.9,   -3.9,   -3.9,   -4.3,   -4.6,   -5.3,   -5.5,   -5.8,   -6.0,   -6.8,   -7.3,  999.0,  999.0,  999.0
2000/11/02 13:30,  999.0,    1.1,    1.6,    1.6,    1.9,    1.0,   -0.4,   -0.9,   -0.7,   -1.0,   -1.1,   -0.6,   -0.5,   -0.6,   -0.9,   -0.5,    0.1,    0.2,    0.3,   -0.1,   -0.9,   -1.6,   -2.0,   -1.5,   -1.7,   -2.1,   -2.9,   -3.4,   -3.9,   -3.7,   -4.0,   -3.8,   -3.5,   -3.4,   -3.4,   -3.1,   -2.9,   -3.2,   -2.7,   -3.1,   -0.7,    1.3,   -3.2,   -5.1,   -5.6,   -5.3,   -4.5,   -4.5,   -4.7,   -5.0,   -5.2,   -5.1,   -5.1,   -5.3,   -5.7,   -5.5,   -5.3,   -5.5
2000/11/02 13:40,  999.0,    1.1,    1.7,    1.6,    1.0,    0.1,   -1.1,   -1.2,   -0.9,   -0.8,   -0.7,   -0.7,   -0.7,   -0.6,   -0.6,    0.0,    0.3,    0.5,    0.2,   -0.3,   -1.0,   -1.2,   -1.6,   -1.7,   -2.2,   -2.8,   -3.6,   -4.3,   -4.5,   -4.7,   -5.0,   -5.0,   -4.8,   -4.3,   -4.1,   -3.9,   -3.6,   -3.5,   -3.0,   -2.2,    0.3,    0.4,   -2.5,   -4.1,   -4.9,   -4.2,   -3.8,   -4.0,   -4.3,   -4.9,   -5.4,   -5.5,   -5.8,   -5.7,   -5.5,   -4.9,   -4.9,   -5.2
2000/11/02 13:50,  999.0,    0.6,    0.5,    0.4,   -0.1,   -0.8,   -1.6,   -2.0,   -2.1,   -1.9,   -1.7,   -1.9,   -2.0,   -2.2,   -1.8,   -1.0,   -0.1,    0.2,    0.2,   -0.5,   -0.9,   -1.7,   -2.1,   -2.5,   -2.9,   -3.8,   -4.9,   -5.6,   -6.0,   -6.5,   -6.8,   -7.1,   -6.9,   -6.2,   -5.3,   -4.5,   -4.3,   -4.3,   -4.2,   -4.2,   -2.2,    1.6,   -1.3,   -3.6,   -4.0,   -3.9,   -3.4,   -3.5,   -3.8,   -4.1,   -4.8,   -5.0,   -5.5,   -5.8,   -5.6,   -5.4,   -5.5,   -5.6
2000/11/02 14:00,  999.0,    1.3,    1.2,    1.0,    0.5,   -0.5,   -1.0,   -0.8,   -0.6,   -0.9,   -1.0,   -0.6,   -0.7,   -0.3,    0.5,    0.9,    0.9,    0.5,   -0.4,   -1.4,   -2.0,   -2.5,   -2.3,   -2.5,   -2.6,   -3.5,   -4.3,   -4.3,   -4.2,   -4.8,   -5.7,   -6.0,   -6.8,   -5.4,   -4.5,   -3.9,   -3.8,   -3.9,   -3.6,   -3.6,   -1.4,    1.6,   -1.1,   -3.6,   -4.1,   -3.7,   -3.5,   -3.7,   -4.2,   -4.6,   -5.4,   -5.6,   -5.7,   -6.0,   -6.1,   -5.8,   -5.5,   -5.4
2000/11/02 14:10,  999.0,    1.7,    1.8,    1.4,    1.2,    0.6,   -0.4,   -0.3,   -0.1,    0.1,   -0.2,    0.4,    0.3,    0.5,    1.8,    2.8,    2.3,    1.6,    1.1,   -1.1,   -0.2,   -0.7,   -0.5,   -1.6,   -1.1,   -0.9,   -0.8,   -0.6,   -0.7,   -0.6,   -0.6,   -1.7,   -1.4,   -1.2,   -0.3,   -0.1,   -0.4,   -0.3,   -0.4,   -0.9,   -1.1,   -0.9,   -0.0,   -2.9,   -3.9,   -2.6,   -3.0,   -3.0,   -3.9,   -3.5,  999.0,   -3.7,   -5.4,   -6.0,   -7.1,   -7.9,   -6.9,   -7.6
2000/11/02 14:20,  999.0,    6.3,    5.9,    4.2,    4.0,    3.6,    2.1,   -0.1,    1.5,    1.2,    2.1,    2.9,  999.0,    4.9,  999.0,    5.9,   -0.8,   -0.3,   -0.9,    0.8,    0.1,   -0.1,   -0.5,   -0.8,   -0.4,   -0.2,   -0.6,   -0.8,   -0.2,   -0.4,   -0.5,   -0.6,   -0.7,   -0.7,   -0.3,   -0.6,   -1.0,   -1.3,   -0.8,   -0.5,  999.0,  999.0,  999.0,  999.0,  999.0,  999.0,  999.0,  999.0,  999.0,  999.0,  999.0,  999.0,  999.0,  999.0,  999.0,  999.0,  999.0,  999.0
2000/11/02 14:30,  999.0,   10.6,   10.9,    9.6,    5.9,    6.1,   10.7,  999.0,  999.0,  999.0,  999.0,   -1.2,   -0.5,  999.0,   -0.9,  999.0,  999.0,   -0.3,   -5.0,   -3.4,   -3.4,   -4.7,   -2.7,   -4.0,   -3.8,   -2.6,   -3.5,   -3.6,   -4.3,   -3.6,   -1.7,   -1.4,   -1.3,   -1.0,   -0.6,   -0.3,    0.1,   -1.4,   -0.1,    0.4,    0.4,    0.2,  999.0,    5.7,    3.2,  999.0,  999.0,  999.0,  999.0,  999.0,  999.0,  999.0,  999.0,  999.0,  999.0,  999.0,  999.0,  999.0
2000/11/02 14:40,  999.0,  999.0,  999.0,  999.0,  -14.3,    0.7,    4.4,   -1.3,   -3.0,   -1.1,   -4.0,   -2.3,    0.8,    0.2,    1.0,    0.5,   -2.9,   -1.2,   -1.3,   -1.9,   -2.8,   -2.9,   -2.2,   -1.6,   -2.0,   -3.1,   -5.2,   -4.8,   -4.5,   -4.3,   -4.1,   -3.7,   -3.2,   -2.7,   -2.2,   -2.0,   -0.8,   -0.8,   -1.9,   -2.1,   -1.3,   -1.4,   -0.4,   -1.6,   -2.6,   -3.1,   -3.3,   -3.5,   -3.5,   -3.6,   -4.6,   -4.0,   -4.2,   -5.0,  999.0,  999.0,  999.0,  999.0
2000/11/02 14:50,  999.0,    1.5,    2.8,    2.9,    2.6,    1.9,    1.5,    1.2,    0.8,    1.0,    1.1,    0.9,    0.8,    1.4,    1.7,    1.3,    1.6,    1.6,    1.1,   -0.0,   -0.2,   -1.8,   -2.1,   -2.2,   -2.3,   -1.9,   -2.3,   -2.5,   -2.5,   -2.3,   -2.7,   -3.0,   -3.0,   -3.7,   -4.0,   -1.9,   -1.6,   -0.6,    1.4,    1.5,    1.0,    0.2,    1.6,   -1.3,   -3.1,   -2.4,   -2.3,  999.0,  999.0,  999.0,  999.0,  999.0,  999.0,  999.0,  999.0,  999.0,  999.0,  999.0
2000/11/02 15:00,  999.0,    1.4,    2.3,    3.0,    2.7,    1.7,    0.6,    0.7,    0.7,    0.5,    0.1,   -1.4,   -0.7,    0.9,    2.1,    1.6,    1.6,    1.8,   -1.2,   -2.3,   -2.9,   -2.7,   -2.6,   -3.8,   -4.0,   -4.0,   -3.8,   -3.7,   -4.1,   -4.5,   -4.9,   -5.6,   -5.8,   -5.9,   -5.6,   -5.5,   -5.2,   -4.6,   -4.4,   -5.0,   -5.0,   -3.7,   -2.5,   -2.6,   -2.9,   -2.1,   -1.8,   -1.8,   -2.9,   -3.6,   -4.7,   -5.0,   -5.5,  999.0,  999.0,  999.0,  999.0,  999.0
2000/11/02 15:10,  999.0,    2.1,    1.9,    2.4,    2.1,    1.5,    0.5,    0.4,    1.3,    0.5,   -0.5,    0.3,    1.0,    1.4,    0.9,    1.1,    1.5,   -0.5,    0.2,   -1.4,   -2.0,   -2.5,   -3.5,   -3.9,   -4.1,   -3.8,   -4.8,   -5.9,   -5.9,   -6.5,   -7.5,   -7.8,   -7.4,   -6.9,   -6.4,   -6.1,   -5.9,   -5.4,   -5.7,   -5.5,   -3.4,   -1.2,   -1.9,   -3.0,   -4.3,   -4.5,   -4.2,   -3.7,   -3.8,   -4.0,   -4.0,   -4.4,   -5.4,  999.0,  999.0,  999.0,  999.0,  999.0
2000/11/02 15:20,  999.0,    2.3,    3.1,    2.7,    2.7,    1.5,    1.2,    1.1,    0.9,    0.2,    0.6,    1.5,    2.2,    2.3,    1.6,    0.5,   -0.8,   -1.3,   -1.7,   -2.4,   -3.1,   -3.5,   -3.5,   -4.1,   -4.7,   -5.2,   -6.1,   -6.8,   -7.0,   -7.1,   -6.9,   -6.8,   -6.6,   -5.7,   -4.6,   -4.2,   -4.2,   -4.3,   -3.6,   -2.0,    0.1,    1.9,  999.0,   -1.0,   -3.3,   -4.1,   -3.9,   -4.8,   -5.4,   -6.0,   -6.4,   -6.7,  999.0,  999.0,  999.0,  999.0,  999.0,  999.0
2000/11/02 15:30,  999.0,    2.7,    3.3,    3.4,    2.6,    1.2,    0.4,    0.4,    0.7,    1.1,    1.2,    1.3,    1.5,    1.7,    1.9,    0.8,    0.1,   -1.1,   -1.8,   -2.5,   -2.5,   -2.3,   -2.9,   -3.2,   -4.1,   -4.9,   -6.1,   -6.6,   -6.3,   -6.0,   -5.7,   -6.0,   -6.1,   -5.7,   -5.1,   -4.6,   -3.9,   -3.4,   -1.8,    0.4,    0.0,    1.3,   -2.0,   -2.6,   -4.4,   -5.3,   -5.7,   -5.6,   -6.1,   -6.4,   -6.8,   -7.1,   -7.5,   -7.7,   -9.4,  999.0,  999.0,  999.0
2000/11/02 15:40,  999.0,    2.4,    3.1,    2.9,    2.5,    1.5,    1.1,    0.5,    0.5,    0.8,    0.7,    0.9,    1.7,    1.9,    1.3,    0.1,   -0.7,   -1.7,   -2.4,   -2.7,   -2.8,   -3.1,   -4.1,   -4.9,   -5.3,   -5.2,   -5.2,   -5.4,   -5.2,   -5.3,   -5.4,   -5.5,   -5.0,   -4.5,   -4.3,   -4.1,   -3.2,   -2.8,   -2.5,   -2.2,   -1.5,   -1.8,   -4.9,   -5.6,   -6.0,   -6.3,   -6.0,   -5.7,   -5.7,   -6.0,   -6.1,   -6.5,   -7.0,   -6.3,   -6.8,   -5.9,   -5.0,  999.0
2000/11/02 15:50,  999.0,    2.2,    3.3,    3.5,    2.9,    2.3,    1.7,    0.7,    0.4,    0.7,    1.0,    1.3,    1.7,    1.5,    1.1,   -0.3,   -1.3,   -1.8,   -1.9,   -2.5,   -2.9,   -3.4,   -3.8,   -3.9,   -3.9,   -3.8,   -4.0,   -4.4,   -4.6,   -4.6,   -4.6,   -4.2,   -3.7,   -3.5,   -3.2,   -3.2,   -3.2,   -3.8,   -4.2,   -3.9,   -3.2,   -2.6,   -3.2,   -3.6,   -4.0,   -5.1,   -6.0,   -6.2,   -6.4,   -6.5,   -6.4,   -6.2,   -6.1,   -6.1,   -5.7,   -5.7,   -6.2,   -6.0
2000/11/02 16:00,  999.0,    0.6,    2.0,    3.0,    2.5,    1.8,    1.1,    0.2,    0.4,    0.8,    0.8,    1.0,    1.7,    2.4,    2.2,    0.8,   -1.0,   -2.0,   -2.2,   -2.1,   -2.5,   -2.9,   -3.3,   -3.3,   -3.2,   -4.1,   -4.6,   -5.0,   -5.4,   -5.2,   -4.7,   -4.1,   -4.3,   -4.5,   -4.7,   -5.4,   -6.0,   -6.4,   -5.4,   -4.9,   -4.1,   -2.6,   -0.4,   -4.8,   -6.5,   -7.5,   -7.6,   -7.3,   -7.4,   -7.5,   -7.3,   -7.6,   -6.6,   -6.5,   -7.1,   -7.8,   -9.0,   -8.3
2000/11/02 16:10,  999.0,   -0.5,    1.4,    2.7,    2.3,    2.0,    1.1,    0.6,    0.5,    0.9,    1.2,    2.2,    2.6,    2.5,    1.8,   -0.3,   -1.4,   -1.4,   -1.1,   -1.8,   -2.7,   -3.2,   -2.8,   -2.9,   -3.2,   -3.5,   -3.9,   -4.0,   -3.5,   -3.1,   -2.7,   -2.1,   -1.9,   -2.1,   -2.6,   -2.7,   -2.9,   -3.2,   -3.1,   -2.0,   -2.2,   -2.3,   -1.6,   -3.7,   -5.1,   -5.8,   -5.7,   -5.5,   -5.9,   -6.2,   -6.5,   -7.1,   -7.9,   -8.0,   -8.9,   -8.8,   -8.6,   -8.9
2000/11/02 16:20,  999.0,    1.6,    2.5,    1.8,    1.3,    0.1,   -0.3,    0.2,    1.0,    1.4,    1.8,    2.9,    2.8,    3.0,    2.5,    1.2,   -0.0,   -0.2,   -0.8,   -2.0,   -3.1,   -3.0,   -2.8,   -2.9,   -3.0,   -3.8,   -4.2,   -4.6,   -4.5,   -4.0,   -3.2,   -2.8,   -2.1,   -1.6,   -1.4,   -1.2,   -1.2,   -1.7,   -2.5,   -2.9,   -2.9,   -0.8,   -2.4,   -5.6,   -6.7,   -6.7,   -5.9,   -5.4,   -5.5,   -5.5,   -5.4,   -5.6,   -6.0,   -5.9,   -5.7,   -5.8,   -6.1,   -6.4
2000/11/02 16:30,  999.0,    1.5,    2.1,    1.7,    0.8,    0.5,    0.7,    1.2,    1.2,    1.2,    2.0,    2.9,    3.2,    3.2,    2.2,    0.6,   -0.4,   -0.9,   -1.3,   -1.7,   -2.5,   -3.1,   -3.2,   -3.0,   -3.5,   -4.3,   -4.9,   -5.0,   -5.3,   -5.4,   -4.7,   -3.5,   -3.1,   -2.5,   -2.1,   -1.7,   -1.1,   -1.2,   -2.1,   -3.1,   -3.2,    1.3,    1.1,   -2.0,   -3.8,   -4.9,   -5.1,   -4.9,   -5.0,   -4.8,   -5.2,   -6.0,   -6.6,   -6.4,   -6.7,   -6.2,   -6.1,   -6.0
2000/11/02 16:40,  999.0,    0.5,    1.1,    2.2,    2.3,    2.8,    0.4,    0.3,    0.7,    1.2,    2.1,    2.8,    3.0,    2.7,    2.2,    0.8,   -0.1,   -0.8,   -1.4,   -2.2,   -2.8,   -3.6,   -3.5,   -3.8,   -4.3,   -4.0,   -4.1,   -4.4,   -4.7,   -5.0,   -5.0,   -4.2,   -3.6,   -2.8,   -2.5,   -2.1,   -1.7,   -2.2,   -2.6,   -3.4,   -4.7,   -2.3,    1.5,   -0.2,   -3.2,   -3.8,   -4.3,   -4.2,   -4.4,   -4.3,   -4.3,   -5.0,   -4.8,   -5.3,   -5.0,   -4.6,   -4.6,   -4.4
2000/11/02 16:50,  999.0,    0.2,    0.8,    0.9,    0.7,    0.1,   -0.1,    0.6,    0.3,    0.4,    1.0,    1.5,    1.6,    2.1,    1.0,   -0.2,   -0.9,   -1.2,   -1.8,   -3.0,   -3.2,   -3.2,   -3.2,   -3.6,   -4.4,   -4.8,   -5.2,   -5.1,   -5.7,   -6.7,   -6.6,   -5.2,   -4.4,   -3.9,   -2.7,   -1.9,   -1.9,   -2.3,   -3.0,   -3.9,   -3.3,    0.3,    4.0,   -2.3,   -4.0,   -3.5,   -3.6,   -4.0,   -4.5,   -5.5,   -6.1,   -6.3,   -6.3,   -6.4,   -5.7,   -6.0,   -6.1,   -5.9
2000/11/02 17:00,  999.0,   -0.2,    0.3,    0.8,    0.9,    0.6,    0.6,    1.0,    0.7,    0.6,    1.4,    1.6,    1.6,    1.5,    0.5,   -0.1,   -0.9,   -1.4,   -1.6,   -2.4,   -2.9,   -2.9,   -3.2,   -3.7,   -4.0,   -4.0,   -4.3,   -4.8,   -5.1,   -5.1,   -4.8,   -3.9,   -3.5,   -3.1,   -2.4,   -1.8,   -1.8,   -2.1,   -2.6,   -2.8,   -1.2,   -0.7,  999.0,  999.0,   -3.8,   -4.6,   -4.4,   -4.6,   -4.7,   -5.3,   -5.5,   -5.2,   -4.9,   -4.9,   -4.9,   -5.4,   -4.8,   -4.6
2000/11/02 17:10,  999.0,    0.1,    0.8,    1.7,    2.1,    1.3,    1.2,    1.5,    1.1,    1.5,    2.3,    2.3,    2.3,    1.3,    0.2,   -0.7,   -1.3,   -1.6,   -2.1,   -2.8,   -3.4,   -3.9,   -4.2,   -4.1,   -4.0,   -4.2,   -5.3,   -5.2,   -5.4,   -4.9,   -3.8,   -3.2,   -2.8,   -2.7,   -2.7,   -2.9,   -3.2,   -3.0,   -2.6,   -1.7,   -1.5,    4.0,   -1.2,   -1.5,   -3.6,   -3.7,   -4.0,   -4.6,   -5.4,   -5.9,   -6.4,   -6.3,   -6.2,   -5.4,   -4.5,   -3.9,   -3.9,   -4.0
2000/11/02 17:20,  999.0,    0.8,    1.2,    2.0,    1.9,    1.3,    1.5,    1.9,    1.7,    2.2,    2.7,    2.7,    1.7,    0.7,    0.3,    0.1,   -0.1,   -1.3,   -2.0,   -2.5,   -3.0,   -3.3,   -3.6,   -3.7,   -3.7,   -4.0,   -4.1,   -4.4,   -3.9,   -3.4,   -2.2,   -2.0,   -2.1,   -2.2,   -2.4,   -2.4,   -2.6,   -2.8,   -2.5,   -2.2,   -0.9,   -0.5,   -2.7,   -3.3,   -3.7,   -4.1,   -4.3,   -4.9,   -5.2,   -4.8,   -4.6,   -5.8,   -6.9,   -7.2,   -6.8,   -6.3,   -5.7,   -4.9
2000/11/02 17:30,  999.0,    2.0,    2.1,    2.2,    1.8,    1.7,    2.2,    2.3,    2.2,    2.8,    2.9,    2.6,    1.0,    0.4,    0.2,   -0.3,   -0.7,   -1.4,   -2.0,   -2.7,   -3.1,   -3.3,   -3.8,   -4.4,   -5.0,   -5.2,   -4.4,   -3.6,   -3.2,   -2.8,   -2.6,   -2.8,   -3.0,   -2.8,   -2.9,   -2.9,   -3.2,   -3.1,   -2.7,   -2.0,   -1.4,    0.4,  999.0,   -3.3,   -3.5,   -4.3,   -4.4,   -4.3,   -4.4,   -4.5,   -4.6,   -4.8,   -4.9,   -5.1,   -5.3,   -5.1,   -4.8,   -4.1
2000/11/02 17:40,  999.0,    2.1,    2.4,    2.6,    2.4,    2.4,    2.8,    3.1,    2.8,    2.8,    2.9,    2.5,    1.3,    0.1,   -0.2,   -0.1,   -0.4,   -1.4,   -2.5,   -2.9,   -2.7,   -3.1,   -3.9,   -4.4,   -3.4,   -3.0,   -3.2,   -2.9,   -2.7,   -2.9,   -2.4,   -2.4,   -2.0,   -1.9,   -2.2,   -2.6,   -2.8,   -3.2,   -3.7,   -3.8,   -2.0,   -0.5,   -2.0,   -4.9,   -5.0,   -5.3,   -4.8,   -4.5,   -4.4,   -4.4,   -4.6,   -4.5,   -4.2,   -3.9,   -4.0,   -4.0,   -4.1,   -4.6
2000/11/02 17:50,  999.0,    3.0,    2.7,    2.7,    3.0,    3.1,    3.7,    3.9,    3.5,    3.4,    3.1,    2.4,    1.1,    0.2,   -0.0,   -0.4,   -1.1,   -1.8,   -2.2,   -3.2,   -3.3,   -4.3,   -4.1,   -3.5,   -3.1,   -3.3,   -3.0,   -3.1,   -2.8,   -2.5,   -2.5,   -2.8,   -3.4,   -3.4,   -3.4,   -3.3,   -3.8,   -4.8,   -5.2,   -5.0,   -3.8,   -3.2,   -4.2,   -4.7,   -5.6,   -6.6,   -6.3,   -5.8,   -5.3,   -5.2,   -4.9,   -4.7,   -4.3,   -4.2,   -4.1,   -4.0,   -4.1,   -4.0
2000/11/02 18:00,  999.0,    4.0,    3.5,    4.2,    4.2,    4.5,    5.1,    4.9,    4.2,    4.2,    3.2,    1.6,    0.0,   -0.3,   -1.2,   -2.3,   -2.8,   -2.9,   -3.3,   -3.2,   -3.5,   -3.3,   -3.7,   -3.5,   -4.0,   -4.1,   -3.8,   -3.9,   -4.0,   -4.2,   -4.1,   -3.8,   -3.6,   -3.8,   -4.2,   -4.7,   -4.8,   -5.1,   -5.4,   -4.6,   -4.0,   -2.7,   -2.3,   -2.6,   -3.6,   -5.1,   -4.2,   -3.9,   -3.9,   -4.3,   -4.0,   -3.4,   -3.2,   -3.4,   -3.5,   -3.7,   -3.8,   -4.2
2000/11/02 18:10,  999.0,    4.6,    5.7,    4.4,    4.2,    4.6,    5.0,    4.8,    3.7,    2.9,    1.7,    0.9,    0.4,   -0.0,   -0.7,   -1.3,   -1.9,   -2.0,   -1.5,   -1.6,   -1.7,   -2.3,   -3.2,   -3.4,   -3.6,   -3.5,   -3.6,   -3.7,   -3.9,   -4.5,   -4.8,   -5.2,   -5.3,   -5.6,   -5.4,   -5.9,   -6.4,   -7.0,   -6.7,   -5.0,   -3.6,    2.8,  999.0,   -1.1,  999.0,   -3.9,   -3.0,   -2.3,   -2.1,   -1.3,   -1.6,   -1.5,   -2.1,   -2.6,   -3.6,   -4.4,   -5.2,   -5.5
2000/11/02 18:20,  999.0,  999.0,    5.5,    6.6,    6.3,    5.7,    5.4,    5.9,    5.2,    3.6,    2.3,    1.2,    1.1,    0.3,   -0.8,   -1.3,   -1.1,   -0.7,   -0.9,   -1.5,   -1.8,   -2.0,   -2.1,   -2.4,   -3.2,   -3.5,   -3.6,   -3.8,   -3.6,   -3.8,   -4.3,   -5.0,   -6.1,   -6.8,   -7.5,   -8.1,   -8.3,   -7.7,   -7.3,   -5.8,   -4.4,   -2.9,   -5.4,   -4.1,   -6.8,   -9.3,   -8.4,   -7.5,   -7.4,   -7.0,   -6.5,   -6.5,   -6.3,   -5.8,   -5.6,   -5.4,   -5.0,   -5.4
2000/11/02 18:30,  999.0,    5.7,    5.9,    7.0,    6.5,    6.3,    6.2,    6.0,    5.5,    4.3,    2.5,    1.5,    1.4,    0.6,   -0.7,   -1.2,   -0.9,   -1.3,   -1.8,   -2.2,   -2.9,   -3.5,   -3.5,   -3.3,   -3.6,   -3.8,   -4.1,   -4.5,   -5.1,   -6.0,   -6.2,   -6.5,   -7.6,   -9.2,   -9.6,  -10.1,  -10.2,   -9.6,   -7.5,   -6.1,   -5.9,   -7.5,   -7.7,   -9.9,  -11.6,  -11.7,  -10.6,   -9.7,   -9.9,   -9.4,   -9.2,   -8.5,   -8.2,   -8.3,   -8.0,   -7.9,   -7.2,   -6.8
2000/11/02 18:40,  999.0,    3.4,    3.3,    5.9,    6.9,    6.4,    5.8,    6.0,    5.8,    5.2,    3.9,    2.3,    2.2,    1.5,   -0.3,   -1.4,   -0.8,   -1.3,   -1.6,   -1.9,   -2.9,   -3.5,   -3.4,   -3.1,   -2.8,   -3.0,   -3.8,   -4.5,   -5.1,   -5.8,   -6.8,   -7.2,   -7.5,   -7.9,   -8.6,   -8.4,   -8.3,   -8.5,   -9.1,   -9.0,   -7.2,   -8.6,  -10.2,  -12.1,  -12.3,  -11.8,  -10.1,   -9.1,   -9.0,   -9.0,   -8.2,   -7.8,   -8.5,   -8.5,   -7.9,   -7.1,   -6.8,   -6.7
2000/11/02 18:50,  999.0,    3.1,    3.3,    5.2,    7.3,    6.7,    5.5,    5.0,    5.2,    5.2,    3.7,    1.7,    1.3,    1.3,    1.2,    1.1,    1.5,    1.7,    0.3,   -0.7,   -1.3,   -0.2,    0.0,    0.3,    0.2,    0.0,   -1.0,   -1.6,   -3.1,   -4.4,   -5.8,   -7.1,   -8.3,   -8.8,   -7.9,   -7.4,   -8.2,   -6.9,   -6.5,   -2.6,   -1.4,   -4.3,   -7.6,  -10.4,  -12.1,  -11.7,  -10.1,   -9.0,   -7.7,   -7.2,   -6.7,   -6.8,   -7.0,   -7.4,   -7.8,   -7.2,   -6.5,   -6.0
2000/11/02 19:00,  999.0,    4.2,    6.7,    6.9,    8.0,    6.9,    6.6,    6.6,    6.1,    5.1,    3.8,    2.9,    2.2,    1.6,    0.5,   -0.1,   -0.1,   -0.3,   -0.8,   -1.1,   -1.2,   -1.6,   -1.8,   -2.2,   -3.0,   -4.1,   -4.6,   -3.6,   -4.1,   -5.2,   -6.5,   -8.2,  -10.3,  -11.6,  -11.7,  -10.8,  -10.2,   -8.8,   -7.7,   -6.8,   -6.4,   -4.4,   -6.7,   -9.7,  -12.3,  -13.5,  -11.5,   -9.1,   -7.4,   -5.7,   -5.6,   -6.3,   -6.8,   -7.2,   -7.1,   -5.7,   -4.9,   -5.2
2000/11/02 19:10,  999.0,    5.6,    6.8,    7.7,    6.4,    5.5,    5.5,    6.0,    4.5,    4.2,    2.4,    0.4,    1.7,    2.7,    1.8,    1.5,    1.1,    0.1,   -0.4,   -0.4,   -0.2,   -0.9,   -1.3,   -2.3,   -4.2,   -5.8,   -4.8,   -4.6,   -4.1,   -4.6,   -4.6,   -6.3,   -7.4,   -8.8,   -9.7,   -9.3,   -8.9,   -7.8,   -6.6,   -5.6,   -5.3,   -4.6,   -5.6,   -8.9,  -10.9,  -12.5,  -12.0,  -10.1,   -7.8,   -6.6,   -6.3,   -5.8,   -5.6,   -6.2,   -6.6,   -5.5,   -5.6,   -5.7
2000/11/02 19:20,  999.0,    8.6,    9.3,    5.8,    7.0,    3.2,   -1.7,   -1.1,    0.2,   -1.8,   -8.1,   -9.3,   -5.7,   -3.8,   -2.1,  999.0,  999.0,  999.0,  999.0,  999.0,  999.0,  999.0,  999.0,  999.0,  999.0,  999.0,  999.0,  999.0,  999.0,   -6.5,  999.0,  999.0,  999.0,   -6.3,  999.0,   -4.4,  999.0,   -3.3,   -2.8,   -2.9,   -1.7,    1.6,   -1.9,   -6.5,   -8.9,   -9.5,   -9.6,   -9.7,   -9.1,   -8.5,   -7.9,   -5.7,   -5.0,   -5.1,   -5.1,   -6.5,   -5.7,   -5.4
2000/11/02 19:30,  999.0,  999.0,   -5.8,   -3.8,    0.7,   -1.3,   -1.5,   -0.7,    0.6,  999.0,   -0.7,  999.0,  999.0,  999.0,   -8.3,   -9.1,  -13.7,  999.0,  999.0,  999.0,  999.0,  999.0,  999.0,  999.0,  999.0,  999.0,  999.0,  999.0,  -17.3,  999.0,  -17.0,  999.0,  999.0,  999.0,  999.0,  999.0,  -14.8,  999.0,  999.0,  999.0,  999.0,  999.0,  999.0,  999.0,  999.0,  999.0,  999.0,  999.0,  999.0,  999.0,  999.0,  999.0,   -5.0,   -4.9,   -5.7,  999.0,  999.0,  999.0
2000/11/02 19:40,  999.0,  999.0,  999.0,    0.2,    6.6,    5.1,    1.2,   -1.5,    0.2,   -0.4,   -4.5,   -0.8,   -2.6,   -1.3,   -3.4,   -3.8,   -1.3,  999.0,  999.0,  999.0,  999.0,  999.0,  999.0,  999.0,  999.0,  999.0,  999.0,  999.0,  999.0,  999.0,  999.0,  999.0,  999.0,  999.0,  999.0,  999.0,  999.0,  999.0,  999.0,  999.0,  999.0,  999.0,  999.0,  999.0,  999.0,  999.0,  999.0,  999.0,  999.0,  999.0,  999.0,  999.0,  999.0,  999.0,  999.0,  999.0,  999.0,  999.0
2000/11/02 19:50,  999.0,    9.7,    7.2,  999.0,    7.5,    8.2,  999.0,  999.0,  999.0,   -1.4,   -0.5,   -5.0,   -1.9,    3.0,  999.0,  999.0,  999.0,  999.0,  999.0,  999.0,  999.0,  999.0,  999.0,  999.0,  999.0,  999.0,  999.0,  999.0,  999.0,  999.0,  999.0,  999.0,  999.0,  999.0,  999.0,  999.0,  999.0,  999.0,  999.0,  999.0,  999.0,  999.0,  999.0,  999.0,  999.0,  999.0,  999.0,  999.0,  999.0,  999.0,  999.0,  999.0,  999.0,  999.0,  999.0,  999.0,  999.0,  999.0
2000/11/02 20:00,  999.0,    5.9,   -0.2,   -0.9,   -1.6,   -0.5,    1.9,    0.1,   -0.5,  999.0,    2.7,   -0.6,   -1.3,   -1.6,    2.0,   -0.5,  999.0,  999.0,  999.0,  999.0,  999.0,  999.0,  999.0,  999.0,  999.0,  999.0,  999.0,  999.0,  999.0,  999.0,  999.0,  999.0,  999.0,  999.0,  999.0,  999.0,  999.0,  999.0,  999.0,  999.0,  999.0,  999.0,  999.0,  999.0,  999.0,  999.0,  999.0,  999.0,  999.0,  999.0,  999.0,  999.0,  999.0,  999.0,  999.0,  999.0,  999.0,  999.0
2000/11/02 20:10,  999.0,  999.0,    0.6,    1.7,    1.5,   -0.5,   -0.3,    0.5,    0.2,    0.4,   -0.8,   -1.0,   -1.9,   -4.5,   -1.2,  999.0,  999.0,  999.0,  999.0,  999.0,  999.0,  999.0,  999.0,  999.0,  999.0,  999.0,  999.0,  999.0,  999.0,  999.0,  999.0,  999.0,  999.0,  999.0,  999.0,  999.0,  999.0,  999.0,  999.0,  999.0,  999.0,  999.0,  999.0,  999.0,  999.0,  999.0,  999.0,  999.0,  999.0,  999.0,  999.0,  999.0,  999.0,  999.0,  999.0,  999.0,  999.0,  999.0
2000/11/02 20:20,  999.0,  999.0,    1.5,  999.0,   -0.1,   -2.2,   -1.8,   -1.6,    1.2,    1.4,   -1.4,    1.4,    0.4,  999.0,  999.0,  999.0,  999.0,  999.0,  999.0,  999.0,  999.0,  999.0,  999.0,  999.0,  999.0,  999.0,  999.0,  999.0,  999.0,  999.0,  999.0,  999.0,  999.0,  999.0,  999.0,  999.0,  999.0,  999.0,  999.0,  999.0,  999.0,  999.0,  999.0,  999.0,  999.0,  999.0,  999.0,  999.0,  999.0,  999.0,  999.0,  999.0,  999.0,  999.0,  999.0,  999.0,  999.0,  999.0
2000/11/02 20:30,  999.0,   -0.1,   -0.9,   -3.2,    1.3,    0.7,    0.5,   -0.5,   -2.1,   -1.5,    0.9,   -0.1,   -2.2,   -2.4,   -3.9,    5.0,  999.0,   -3.2,  999.0,  999.0,  999.0,  999.0,  999.0,  999.0,  999.0,  999.0,  999.0,  999.0,  999.0,  999.0,  999.0,  999.0,  999.0,  999.0,  999.0,  999.0,  999.0,  999.0,  999.0,  999.0,  999.0,  999.0,  999.0,  999.0,  999.0,  999.0,  999.0,  999.0,  999.0,  999.0,  999.0,  999.0,  999.0,  999.0,  999.0,  999.0,  999.0,  999.0
2000/11/02 20:40,  999.0,    2.8,    1.2,    3.2,    3.3,    1.7,   -0.6,   -0.1,   -0.4,    1.3,   -0.5,   -2.0,   -2.1,   -0.2,  999.0,    0.2,  999.0,   -3.2,  999.0,  999.0,  999.0,  999.0,  999.0,  999.0,  999.0,  999.0,  999.0,  999.0,  999.0,  999.0,  999.0,  999.0,  999.0,  999.0,  999.0,  999.0,  999.0,  999.0,  999.0,  999.0,  999.0,  999.0,  999.0,  999.0,  999.0,  999.0,  999.0,  999.0,  999.0,  999.0,  999.0,  999.0,  999.0,  999.0,  999.0,  999.0,  999.0,  999.0
2000/11/02 20:50,  999.0,    2.7,  999.0,    1.4,   -1.4,   -3.7,   -2.0,   -4.2,   -5.3,   -1.4,   -3.3,   -5.6,   -2.1,   -1.4,  999.0,  999.0,  999.0,  -11.8,  999.0,  999.0,  999.0,  999.0,  999.0,  999.0,  999.0,  999.0,  -20.2,  -20.8,  999.0,  999.0,  999.0,  999.0,  999.0,  999.0,  999.0,  999.0,  999.0,  999.0,  999.0,  999.0,  999.0,  999.0,  999.0,  999.0,  999.0,  999.0,  999.0,  999.0,  999.0,  999.0,  999.0,  999.0,  999.0,  999.0,  999.0,  999.0,  999.0,  999.0
2000/11/02 21:00,  999.0,  999.0,   -5.9,  999.0,   -4.1,   -1.3,    1.7,   -3.0,   -2.9,    0.3,  999.0,   -0.8,  999.0,  999.0,  999.0,  999.0,  999.0,  999.0,  999.0,  999.0,  999.0,  999.0,  999.0,  999.0,  999.0,  999.0,  999.0,  -13.6,  -14.2,  -13.7,  -14.6,  -13.9,  -16.2,  -16.7,  999.0,  -14.8,  -15.4,  -15.5,  -15.9,  -16.7,  -15.6,  999.0,  999.0,   -9.7,   -9.0,  999.0,  999.0,  999.0,  999.0,  999.0,  999.0,  999.0,  999.0,  999.0,  999.0,  999.0,  999.0,  999.0
2000/11/02 21:10,  999.0,  999.0,    1.3,   -1.2,   -1.1,   -0.2,   -1.3,    0.6,   -1.9,   -0.3,    1.0,  -14.6,   -2.2,  -13.9,  -13.7,  -10.8,  -21.0,  999.0,  999.0,  999.0,  999.0,  999.0,  999.0,  999.0,  999.0,  999.0,  -16.9,  -16.1,  -16.0,  -15.9,  -15.7,  -16.2,  -16.9,  -17.1,  -16.7,  -16.8,  -16.4,  -18.2,  -19.1,  -19.7,  -18.4,  -17.3,  -13.2,  -10.2,   -9.7,  999.0,  999.0,  999.0,  999.0,  999.0,  999.0,  999.0,  999.0,  999.0,  999.0,  999.0,  999.0,  999.0
2000/11/02 21:20,  999.0,  999.0,   -2.6,  999.0,  999.0,    1.0,    0.6,  999.0,   -1.0,    3.1,   -7.4,   -7.1,  999.0,   -9.4,   -5.7,   -6.2,   -6.9,  -15.3,  -11.7,  -11.9,  -14.1,  -14.6,  -13.5,  -14.2,  -15.7,  -15.4,  -15.0,  -15.0,  -14.2,  -14.4,  -14.3,  -14.8,  -14.4,  -14.7,  -14.6,  -14.9,  -14.7,  -15.3,  -15.9,  -16.9,  -17.8,  -15.2,  -13.5,   -9.1,   -9.8,  -11.2,  999.0,  999.0,  999.0,  999.0,  999.0,  999.0,  999.0,  999.0,  999.0,  999.0,  999.0,  999.0
2000/11/02 21:30,  999.0,  999.0,  999.0,  999.0,   -5.7,  999.0,   -7.8,   -8.0,   -5.9,   -7.7,   -7.2,   -8.4,  -10.1,   -6.6,   -5.6,  -10.2,  999.0,  999.0,  999.0,  999.0,  -19.2,  -19.4,  999.0,  -19.4,  -20.9,  -20.9,  -20.5,  -19.6,  -17.9,  -18.0,  -18.5,  -18.0,  -17.5,  -16.2,  -17.8,  -16.4,  -17.8,  -16.8,  -17.5,  -18.5,  999.0,  999.0,  -14.6,  -11.3,   -8.6,  999.0,  999.0,  999.0,  999.0,  999.0,  999.0,  999.0,  999.0,  999.0,  999.0,  999.0,  999.0,  999.0
2000/11/02 21:40,  999.0,    2.2,  999.0,  999.0,   -2.3,    1.5,   -7.3,   -2.1,   -6.7,   -1.4,   -3.6,  999.0,   -1.8,   -6.0,  999.0,  999.0,  999.0,  999.0,  999.0,  999.0,  999.0,  999.0,  999.0,  999.0,   -8.4,  -13.1,  -12.5,  999.0,  -12.1,  -13.1,  999.0,  999.0,  999.0,   -9.5,  999.0,   -9.6,  999.0,   -7.6,   -8.7,  999.0,  999.0,   -5.7,  999.0,  999.0,  999.0,  999.0,  999.0,   -0.8,  999.0,  999.0,  999.0,  999.0,   -0.9,   -1.4,  999.0,  999.0,  999.0,  999.0
2000/11/02 21:50,  999.0,  999.0,    2.3,    0.9,    0.1,   -1.0,    1.3,    1.6,    1.2,    2.1,   -4.2,  999.0,   -2.9,    1.5,   -1.5,   -0.4,   -0.6,   -4.4,   -0.3,  999.0,  999.0,  999.0,  999.0,  999.0,  -13.5,  -13.1,  999.0,  999.0,  -11.0,  -10.5,   -9.2,   -8.3,  999.0,   -6.5,   -5.7,   -5.2,   -4.6,  999.0,  999.0,  999.0,  999.0,   -1.4,   -0.6,   -0.8,   -0.8,  999.0,  999.0,    0.1,  999.0,   -0.4,  999.0,   -0.6,  999.0,    0.0,   -0.4,  999.0,   -1.2,  999.0
2000/11/02 22:00,  999.0,   -2.6,   -0.4,    3.2,    2.0,   -2.3,    0.1,    3.1,    4.1,  999.0,  999.0,   -5.2,  999.0,  999.0,  999.0,  999.0,  999.0,   -2.0,  999.0,  999.0,  -18.9,  999.0,  999.0,  999.0,  -13.1,  -11.6,  -10.4,  -10.7,  -11.3,  -11.1,   -8.7,   -8.0,   -7.8,   -6.6,   -5.0,   -2.9,   -4.6,   -1.9,   -1.3,   -2.2,   -1.9,   -2.1,   -0.4,   -1.6,   -0.2,   -0.9,   -1.0,   -0.3,  999.0,   -0.4,  999.0,   -1.3,   -1.3,   -1.0,   -0.5,   -0.5,   -1.1,   -0.8
2000/11/02 22:10,  999.0,  999.0,  999.0,  999.0,  999.0,  999.0,    1.0,    2.2,    2.4,    0.1,   -1.6,  999.0,  999.0,   -0.0,  999.0,  999.0,  999.0,  999.0,  999.0,  999.0,  999.0,  -13.4,  999.0,  999.0,  -10.9,  -10.9,  -10.5,   -9.4,   -4.0,   -3.2,   -6.4,  999.0,   -2.9,   -1.0,   -0.4,   -1.1,   -0.8,   -1.6,   -1.0,   -0.9,    0.1,   -0.2,   -0.9,   -0.3,   -0.8,   -0.7,   -0.8,   -0.8,   -0.4,   -0.2,   -0.7,   -0.9,   -0.7,   -0.7,   -0.9,   -1.0,   -0.6,   -0.8
2000/11/02 22:20,  999.0,   -1.1,   -1.8,    0.5,  999.0,    0.5,    0.5,    2.3,   -0.4,  999.0,   -1.1,    0.1,  999.0,  999.0,  999.0,   -2.1,   -5.9,  999.0,  999.0,  999.0,  -11.1,  -10.3,   -9.5,  999.0,  999.0,  999.0,   -6.3,   -7.2,   -5.9,   -5.8,   -5.0,   -5.9,  999.0,   -2.9,  999.0,   -0.7,   -0.9,   -0.9,   -1.2,   -1.0,   -1.4,   -0.6,   -0.6,   -0.1,  999.0,  999.0,   -0.2,   -0.4,   -0.5,   -1.1,   -0.9,   -0.8,   -1.4,   -0.7,   -0.5,   -0.7,   -1.1,  999.0
2000/11/02 22:30,  999.0,    1.7,   -3.8,  999.0,   -5.6,    0.4,   -0.0,    0.5,    0.0,   -4.0,   -0.2,  999.0,  999.0,   -7.1,   -7.1,  999.0,  -10.2,  999.0,  999.0,  -13.5,  -11.9,  -10.5,  -12.5,  999.0,   -9.1,   -8.4,   -6.1,   -4.2,   -3.1,   -1.6,   -1.8,   -0.8,   -1.1,   -1.0,   -1.1,   -1.3,    0.0,   -0.5,   -0.7,   -0.8,   -1.6,   -0.8,   -1.0,   -0.9,   -0.9,  999.0,   -0.8,   -0.6,   -1.1,   -1.1,   -0.6,   -0.7,  999.0,   -0.7,   -0.6,   -0.6,   -0.2,   -1.2
2000/11/02 22:40,  999.0,  999.0,    2.4,    1.0,   -3.7,   -1.5,   -1.0,    2.8,    1.1,    0.9,   -0.2,    0.8,  999.0,   -0.5,   -4.9,  999.0,  999.0,  999.0,  999.0,  999.0,  999.0,  999.0,  999.0,  999.0,   -9.1,  999.0,  999.0,   -4.7,   -5.1,   -3.4,  999.0,  999.0,  999.0,   -2.3,  999.0,   -0.9,  999.0,  999.0,   -0.5,   -0.6,   -0.9,  999.0,   -0.2,  999.0,   -0.7,   -0.4,   -1.1,  999.0,   -0.7,   -0.8,   -1.4,  999.0,   -0.7,   -0.6,   -0.2,   -1.1,   -0.5,  999.0
2000/11/02 22:50,  999.0,  999.0,  999.0,    0.3,    2.1,    1.2,   -0.8,   -0.3,    1.6,    1.1,   -1.0,  999.0,  999.0,  999.0,    3.4,  999.0,  999.0,    1.7,   -6.3,  999.0,  -14.0,  -11.4,  -11.8,  -12.8,  -10.2,  -10.2,   -8.9,   -8.4,   -6.8,   -5.5,   -4.9,   -3.8,   -3.7,  999.0,   -1.6,   -1.3,   -0.8,   -0.9,   -1.0,   -0.8,   -1.1,   -0.7,   -0.5,   -1.0,   -1.1,   -0.7,    0.0,   -1.2,   -1.0,   -0.5,   -0.9,  999.0,   -0.9,   -1.2,   -0.6,   -1.0,  999.0,   -0.9
2000/11/02 23:00,  999.0,   -0.1,    0.3,  999.0,   -1.0,   -1.2,    1.3,    0.6,   -0.9,   -2.4,   -3.7,    0.1,   -1.2,  999.0,   -8.2,   -6.9,  999.0,  999.0,  999.0,   -6.2,  999.0,  999.0,  999.0,  999.0,  999.0,  -11.4,   -9.6,   -8.6,   -8.4,   -7.5,   -5.4,   -4.2,   -3.6,   -2.6,   -1.7,   -0.7,   -1.1,   -0.4,   -0.4,   -0.1,  999.0,   -1.0,   -0.8,   -1.3,   -0.6,   -0.9,  999.0,   -0.5,   -1.7,   -0.4,   -0.6,   -0.8,  999.0,   -0.5,   -1.2,    0.4,   -0.8,   -0.5
2000/11/02 23:10,  999.0,    0.7,    5.3,   -2.0,  999.0,   -1.6,  999.0,    0.6,    0.7,   -0.8,   -0.3,    0.3,  999.0,  999.0,  999.0,  999.0,   -3.7,  999.0,  999.0,  -14.3,  999.0,  999.0,  999.0,  -10.2,   -9.7,   -9.9,   -8.1,   -7.8,  999.0,  999.0,   -5.6,   -2.9,   -1.1,   -1.2,   -0.6,   -1.0,   -0.7,   -1.0,   -0.9,   -0.4,   -0.8,   -0.5,   -0.8,   -0.6,   -0.8,   -0.1,   -0.4,   -0.8,   -0.8,   -0.9,   -0.9,   -0.3,   -0.5,  999.0,  999.0,   -0.6,   -0.8,  999.0
2000/11/02 23:20,  999.0,    0.7,  999.0,    0.7,   -1.1,   -1.5,   -0.9,   -0.7,    0.2,   -2.4,    1.1,  999.0,   -0.4,  999.0,  999.0,  999.0,  -20.0,  -18.9,  -18.3,  -16.9,  -15.5,  999.0,  -13.0,  -11.7,  999.0,   -8.4,   -7.0,   -7.0,   -5.2,   -3.4,   -2.5,  999.0,   -0.4,   -0.7,   -1.1,  999.0,   -1.1,   -0.8,   -0.9,  999.0,   -1.6,   -0.9,   -0.6,   -0.8,   -0.3,   -0.9,   -0.9,  999.0,   -1.4,   -0.5,   -0.3,   -0.6,   -0.7,   -0.9,   -0.7,   -0.9,   -0.7,   -0.7
2000/11/02 23:30,  999.0,  999.0,    1.9,  999.0,  999.0,    1.8,   -1.0,   -1.6,  999.0,   -2.6,   -0.6,  999.0,  999.0,   -6.8,  -10.3,  999.0,  999.0,  999.0,  -17.3,  -15.2,  999.0,  999.0,  -14.5,  -12.5,  -12.3,  -13.8,   -8.8,   -8.5,  999.0,   -6.2,   -4.5,   -5.1,   -2.4,   -1.0,   -1.1,   -1.0,   -0.5,   -0.9,   -0.5,   -0.6,   -1.1,   -1.2,   -1.0,   -1.4,  999.0,   -0.9,   -0.5,  999.0,   -0.8,   -0.6,   -1.1,   -0.6,   -1.1,   -0.7,   -0.6,   -0.7,   -0.7,   -1.2
2000/11/02 23:40,  999.0,  999.0,  999.0,    0.9,    1.7,  999.0,   -0.5,   -0.1,   -0.1,  999.0,  999.0,   -0.3,  999.0,  999.0,  -19.7,  999.0,  -21.9,  -21.9,  999.0,  -10.2,  -22.6,  999.0,  999.0,  -14.5,  -13.6,  -10.1,  -11.2,  999.0,   -6.4,  -11.2,  -10.0,   -2.2,   -4.2,   -2.7,   -2.0,  999.0,   -1.8,   -1.9,   -0.7,   -0.4,   -0.8,   -0.9,    0.1,   -1.0,   -0.7,   -0.8,   -0.7,   -1.0,   -1.2,   -1.1,   -1.6,   -0.8,   -0.7,  999.0,  999.0,   -0.7,   -0.8,    0.1
2000/11/02 23:50,  999.0,  999.0,    0.4,    1.6,    1.1,   -0.3,    1.1,    0.5,   -0.4,  999.0,    0.7,   -0.8,  999.0,   -3.2,  999.0,  999.0,  999.0,  -18.4,  -19.5,  999.0,  -16.4,  -15.4,  -13.2,  999.0,  999.0,  -11.2,  -10.3,  -10.3,   -9.1,  999.0,  999.0,  999.0,  999.0,   -3.0,   -0.5,   -0.1,   -0.3,   -0.5,  999.0,   -1.2,   -1.0,   -0.9,   -1.5,   -0.1,   -0.8,   -1.3,   -0.4,   -1.5,   -0.7,  999.0,   -0.9,   -1.1,   -1.2,   -0.9,   -1.1,   -0.2,   -0.7,  999.0
